UAL211 KMCO-EBBR

Flight info

Callsign UAL211
Flight time 8h 51m
Altitude 34000
Route JEEMY4 PAINN SHRKS BERTT GURGE RAYVO Q87 NOWAE FAK BOOYA Q34 RBV Q22 LLUND BIZEX Q133 CAM BEEHS JIGZY TAFFY N693A NEEKO 5350N 5440N 5430N 5420N DOGAL BEXET BOFUM Q37 MALUD UL975 WAL M16 DOLAS NAVPI ALFEN ORCAV Z310 BATAK Z310 WOODY
Aircraft B77W/H-SDE1E2E3FGHIJ2J3J4J5M1RWXY/LB1D1

Departure

Time 2026-04-25 13:29
Airport Orlando International Airport (KMCO)

Arrival

Time 2026-04-25 22:21
Airport Brussels Airport (EBBR)
Time Latitude Longitude Altitude Speed Heading
2026-04-25 12:43 28.42640 -81.31567 99 ft 0 kts 130°
2026-04-25 13:11 28.42641 -81.31569 99 ft 2 kts 130°
2026-04-25 13:11 28.42655 -81.31587 98 ft 2 kts 130°
2026-04-25 13:11 28.42672 -81.31604 98 ft 4 kts 160°
2026-04-25 13:11 28.42696 -81.31609 98 ft 4 kts 187°
2026-04-25 13:12 28.42720 -81.31604 97 ft 4 kts 189°
2026-04-25 13:12 28.42730 -81.31602 98 ft 0 kts 189°
2026-04-25 13:15 28.42722 -81.31620 97 ft 5 kts 248°
2026-04-25 13:15 28.42711 -81.31661 100 ft 5 kts 260°
2026-04-25 13:15 28.42709 -81.31702 102 ft 5 kts 269°
2026-04-25 13:16 28.42709 -81.31763 104 ft 12 kts 270°
2026-04-25 13:16 28.42757 -81.31829 105 ft 12 kts 345°
2026-04-25 13:16 28.42868 -81.31837 105 ft 21 kts 360°
2026-04-25 13:16 28.43026 -81.31839 103 ft 24 kts 359°
2026-04-25 13:17 28.43197 -81.31841 104 ft 24 kts 359°
2026-04-25 13:17 28.43367 -81.31843 103 ft 24 kts 360°
2026-04-25 13:17 28.43537 -81.31845 104 ft 24 kts 360°
2026-04-25 13:17 28.43697 -81.31847 105 ft 21 kts 360°
2026-04-25 13:18 28.43785 -81.31847 104 ft 7 kts 360°
2026-04-25 13:18 28.43794 -81.31847 104 ft 0 kts 359°
2026-04-25 13:23 28.43802 -81.31847 106 ft 8 kts 359°
2026-04-25 13:23 28.43910 -81.31852 105 ft 18 kts 351°
2026-04-25 13:23 28.44042 -81.31894 105 ft 21 kts 346°
2026-04-25 13:23 28.44185 -81.31901 103 ft 21 kts 360°
2026-04-25 13:24 28.44280 -81.31902 104 ft 21 kts 359°
2026-04-25 13:24 28.44424 -81.31905 104 ft 21 kts 359°
2026-04-25 13:24 28.44605 -81.31906 103 ft 13 kts 359°
2026-04-25 13:24 28.44637 -81.31907 103 ft 2 kts 359°
2026-04-25 13:25 28.44639 -81.31907 103 ft 0 kts 359°
2026-04-25 13:25 28.44723 -81.31908 103 ft 16 kts 359°
2026-04-25 13:26 28.44817 -81.31950 104 ft 16 kts 291°
2026-04-25 13:26 28.44825 -81.32074 104 ft 16 kts 269°
2026-04-25 13:26 28.44824 -81.32109 104 ft 0 kts 269°
2026-04-25 13:26 28.44824 -81.32116 104 ft 6 kts 269°
2026-04-25 13:27 28.44822 -81.32197 104 ft 10 kts 264°
2026-04-25 13:27 28.44803 -81.32225 103 ft 3 kts 202°
2026-04-25 13:27 28.44777 -81.32230 103 ft 5 kts 181°
2026-04-25 13:27 28.44772 -81.32230 105 ft 0 kts 181°
2026-04-25 13:28 28.44615 -81.32230 103 ft 59 kts 179°
2026-04-25 13:29 28.43941 -81.32223 107 ft 133 kts 179°
2026-04-25 13:29 28.42797 -81.32213 160 ft 189 kts 180°
2026-04-25 13:29 28.41443 -81.32204 913 ft 196 kts 180°
2026-04-25 13:30 28.38728 -81.32379 2147 ft 208 kts 196°
2026-04-25 13:30 28.37305 -81.32944 2381 ft 223 kts 201°
2026-04-25 13:30 28.35880 -81.33732 2774 ft 231 kts 212°
2026-04-25 13:31 28.33829 -81.36650 3332 ft 257 kts 258°
2026-04-25 13:31 28.33547 -81.38686 3624 ft 264 kts 262°
2026-04-25 13:31 28.33313 -81.40781 4028 ft 269 kts 263°
2026-04-25 13:31 28.33083 -81.42869 4536 ft 270 kts 263°
2026-04-25 13:32 28.32851 -81.44990 5091 ft 272 kts 263°
2026-04-25 13:32 28.32618 -81.47129 5665 ft 274 kts 263°
2026-04-25 13:32 28.32387 -81.49277 6114 ft 275 kts 263°
2026-04-25 13:32 28.32168 -81.51447 6498 ft 276 kts 268°
2026-04-25 13:33 28.32487 -81.53578 6880 ft 277 kts 296°
2026-04-25 13:33 28.33623 -81.55311 7444 ft 275 kts 317°
2026-04-25 13:33 28.35094 -81.56710 8036 ft 277 kts 322°
2026-04-25 13:33 28.36144 -81.57534 8333 ft 278 kts 333°
2026-04-25 13:34 28.38669 -81.58262 9023 ft 282 kts 352°
2026-04-25 13:34 28.40625 -81.58507 9620 ft 284 kts 353°
2026-04-25 13:34 28.42575 -81.58722 10156 ft 285 kts 353°
2026-04-25 13:34 28.44560 -81.58933 10680 ft 287 kts 353°
2026-04-25 13:35 28.46549 -81.58992 11083 ft 290 kts
2026-04-25 13:35 28.48566 -81.58422 11217 ft 308 kts 16°
2026-04-25 13:35 28.50652 -81.57590 11358 ft 326 kts 18°
2026-04-25 13:35 28.52821 -81.56695 11665 ft 337 kts 18°
2026-04-25 13:36 28.55055 -81.55799 12129 ft 343 kts 17°
2026-04-25 13:36 28.57343 -81.54916 12477 ft 354 kts 16°
2026-04-25 13:36 28.59700 -81.54036 12783 ft 365 kts 16°
2026-04-25 13:36 28.62143 -81.53142 13265 ft 372 kts 15°
2026-04-25 13:37 28.64618 -81.52248 13870 ft 374 kts 15°
2026-04-25 13:37 28.67124 -81.51350 14404 ft 377 kts 15°
2026-04-25 13:37 28.69645 -81.50449 14895 ft 381 kts 15°
2026-04-25 13:37 28.72194 -81.49540 15388 ft 385 kts 15°
2026-04-25 13:38 28.74761 -81.48625 15866 ft 388 kts 15°
2026-04-25 13:38 28.77342 -81.47703 16343 ft 391 kts 15°
2026-04-25 13:38 28.79925 -81.46780 16812 ft 394 kts 15°
2026-04-25 13:38 28.82567 -81.45835 17263 ft 398 kts 15°
2026-04-25 13:39 28.85220 -81.44886 17706 ft 402 kts 15°
2026-04-25 13:39 28.87929 -81.43918 17871 ft 412 kts 15°
2026-04-25 13:39 28.90711 -81.42922 18002 ft 423 kts 15°
2026-04-25 13:39 28.93581 -81.42075 18244 ft 428 kts
2026-04-25 13:40 28.96513 -81.41680 18542 ft 430 kts
2026-04-25 13:40 28.99511 -81.41669 18946 ft 428 kts 353°
2026-04-25 13:40 29.02468 -81.42015 19330 ft 428 kts 352°
2026-04-25 13:40 29.05444 -81.42396 19667 ft 431 kts 352°
2026-04-25 13:41 29.08433 -81.42751 20016 ft 433 kts 352°
2026-04-25 13:41 29.11440 -81.43080 20380 ft 435 kts 353°
2026-04-25 13:41 29.14461 -81.43375 20730 ft 437 kts 353°
2026-04-25 13:41 29.17503 -81.43656 21057 ft 439 kts 353°
2026-04-25 13:42 29.20555 -81.43935 21383 ft 441 kts 353°
2026-04-25 13:42 29.23579 -81.44213 21865 ft 438 kts 353°
2026-04-25 13:42 29.26597 -81.44495 22461 ft 434 kts 353°
2026-04-25 13:42 29.29611 -81.44780 22887 ft 434 kts 353°
2026-04-25 13:43 29.32636 -81.45068 23168 ft 437 kts 353°
2026-04-25 13:43 29.35690 -81.45360 23451 ft 441 kts 353°
2026-04-25 13:43 29.38757 -81.45652 23731 ft 443 kts 353°
2026-04-25 13:43 29.41830 -81.45945 24022 ft 444 kts 354°
2026-04-25 13:44 29.44910 -81.46240 24321 ft 445 kts 354°
2026-04-25 13:44 29.48007 -81.46536 24591 ft 447 kts 354°
2026-04-25 13:44 29.51115 -81.46832 24866 ft 449 kts 354°
2026-04-25 13:44 29.54236 -81.47130 25132 ft 451 kts 354°
2026-04-25 13:45 29.57331 -81.47427 25401 ft 452 kts 354°
2026-04-25 13:45 29.60474 -81.47722 25666 ft 454 kts 354°
2026-04-25 13:45 29.63634 -81.48008 25917 ft 455 kts 354°
2026-04-25 13:45 29.66813 -81.48292 26174 ft 457 kts 355°
2026-04-25 13:46 29.69982 -81.48576 26437 ft 459 kts 355°
2026-04-25 13:46 29.73172 -81.48863 26700 ft 460 kts 355°
2026-04-25 13:46 29.76370 -81.49152 26951 ft 461 kts 355°
2026-04-25 13:46 29.79579 -81.49443 27207 ft 463 kts 355°
2026-04-25 13:47 29.82799 -81.49736 27442 ft 465 kts 355°
2026-04-25 13:47 29.85985 -81.50030 27673 ft 466 kts 354°
2026-04-25 13:47 29.89209 -81.50533 27906 ft 468 kts 349°
2026-04-25 13:47 29.92377 -81.51394 28122 ft 469 kts 343°
2026-04-25 13:48 29.95506 -81.52518 28317 ft 471 kts 342°
2026-04-25 13:48 29.98630 -81.53663 28546 ft 472 kts 342°
2026-04-25 13:48 30.01767 -81.54813 28746 ft 473 kts 343°
2026-04-25 13:48 30.04913 -81.55958 28887 ft 475 kts 343°
2026-04-25 13:49 30.08080 -81.57102 28942 ft 477 kts 343°
2026-04-25 13:49 30.14418 -81.59374 28974 ft 476 kts 343°
2026-04-25 13:50 30.20745 -81.61638 28982 ft 475 kts 343°
2026-04-25 13:50 30.27025 -81.63889 28980 ft 475 kts 343°
2026-04-25 13:51 30.33339 -81.66157 28978 ft 474 kts 343°
2026-04-25 13:51 30.39652 -81.68427 28964 ft 474 kts 343°
2026-04-25 13:52 30.45966 -81.70702 28964 ft 475 kts 343°
2026-04-25 13:52 30.52284 -81.72980 28961 ft 475 kts 343°
2026-04-25 13:53 30.58577 -81.75182 28963 ft 475 kts 347°
2026-04-25 13:53 30.65137 -81.76088 28968 ft 475 kts 359°
2026-04-25 13:54 30.71733 -81.75550 29028 ft 477 kts
2026-04-25 13:54 30.75047 -81.75097 29184 ft 478 kts
2026-04-25 13:54 30.78356 -81.74644 29394 ft 479 kts
2026-04-25 13:54 30.81670 -81.74203 29604 ft 479 kts
2026-04-25 13:55 30.84949 -81.73780 29784 ft 480 kts
2026-04-25 13:55 30.88271 -81.73360 29954 ft 481 kts
2026-04-25 13:55 30.91600 -81.72944 30123 ft 481 kts
2026-04-25 13:55 30.94934 -81.72529 30306 ft 480 kts
2026-04-25 13:56 30.98264 -81.72114 30498 ft 480 kts
2026-04-25 13:56 31.01593 -81.71698 30700 ft 479 kts
2026-04-25 13:56 31.04266 -81.71363 30838 ft 479 kts
2026-04-25 13:56 31.07601 -81.70944 31003 ft 479 kts
2026-04-25 13:57 31.10858 -81.70535 31164 ft 479 kts
2026-04-25 13:57 31.13092 -81.70254 31289 ft 478 kts
2026-04-25 13:57 31.17456 -81.69480 31515 ft 478 kts 12°
2026-04-25 13:57 31.20673 -81.68474 31679 ft 478 kts 16°
2026-04-25 13:58 31.23846 -81.67304 31828 ft 479 kts 17°
2026-04-25 13:58 31.27022 -81.66115 31994 ft 478 kts 17°
2026-04-25 13:58 31.30199 -81.64925 32177 ft 478 kts 17°
2026-04-25 13:58 31.33373 -81.63745 32352 ft 477 kts 17°
2026-04-25 13:59 31.36539 -81.62576 32521 ft 477 kts 16°
2026-04-25 13:59 31.39710 -81.61412 32667 ft 477 kts 16°
2026-04-25 13:59 31.42852 -81.60263 32820 ft 477 kts 16°
2026-04-25 14:00 31.48139 -81.58330 32915 ft 479 kts 16°
2026-04-25 14:00 31.55594 -81.55601 32953 ft 478 kts 16°
2026-04-25 14:01 31.61898 -81.53289 32950 ft 476 kts 16°
2026-04-25 14:01 31.68233 -81.50964 32947 ft 475 kts 16°
2026-04-25 14:02 31.74542 -81.48642 32948 ft 475 kts 16°
2026-04-25 14:02 31.80850 -81.46313 32946 ft 475 kts 16°
2026-04-25 14:03 31.87127 -81.43996 32945 ft 475 kts 16°
2026-04-25 14:03 31.93450 -81.41657 32944 ft 476 kts 16°
2026-04-25 14:04 31.99785 -81.39313 32944 ft 477 kts 17°
2026-04-25 14:04 32.06094 -81.36974 32949 ft 478 kts 17°
2026-04-25 14:05 32.12458 -81.34611 32953 ft 478 kts 17°
2026-04-25 14:05 32.18777 -81.32263 32956 ft 479 kts 17°
2026-04-25 14:06 32.25145 -81.29891 32943 ft 479 kts 17°
2026-04-25 14:06 32.31512 -81.27516 32949 ft 479 kts 17°
2026-04-25 14:07 32.37880 -81.25138 32936 ft 479 kts 17°
2026-04-25 14:07 32.44203 -81.22736 32934 ft 479 kts 19°
2026-04-25 14:08 32.50190 -81.19194 32932 ft 481 kts 31°
2026-04-25 14:08 32.55552 -81.14438 32923 ft 482 kts 38°
2026-04-25 14:09 32.60686 -81.09369 32928 ft 482 kts 38°
2026-04-25 14:09 32.65853 -81.04275 32925 ft 482 kts 38°
2026-04-25 14:10 32.71036 -80.99207 32930 ft 483 kts 38°
2026-04-25 14:10 32.76234 -80.94140 32934 ft 483 kts 38°
2026-04-25 14:11 32.81401 -80.89095 32941 ft 483 kts 38°
2026-04-25 14:11 32.86604 -80.84006 32950 ft 483 kts 38°
2026-04-25 14:12 32.91797 -80.78915 32948 ft 483 kts 38°
2026-04-25 14:12 32.96953 -80.73853 32963 ft 483 kts 38°
2026-04-25 14:13 33.02146 -80.68746 32960 ft 484 kts 38°
2026-04-25 14:13 33.07342 -80.63635 32953 ft 484 kts 38°
2026-04-25 14:14 33.12544 -80.58509 32950 ft 484 kts 39°
2026-04-25 14:14 33.17739 -80.53375 32926 ft 485 kts 39°
2026-04-25 14:15 33.22951 -80.48224 33063 ft 486 kts 39°
2026-04-25 14:15 33.28100 -80.43119 33557 ft 483 kts 39°
2026-04-25 14:15 33.30681 -80.40557 33775 ft 482 kts 39°
2026-04-25 14:16 33.33262 -80.37994 33968 ft 481 kts 39°
2026-04-25 14:16 33.35837 -80.35435 34119 ft 480 kts 39°
2026-04-25 14:16 33.38411 -80.32875 34269 ft 480 kts 39°
2026-04-25 14:16 33.40980 -80.30318 34413 ft 481 kts 39°
2026-04-25 14:17 33.43559 -80.27747 34548 ft 480 kts 39°
2026-04-25 14:17 33.46124 -80.25187 34656 ft 481 kts 39°
2026-04-25 14:17 33.48692 -80.22625 34769 ft 481 kts 39°
2026-04-25 14:18 33.53814 -80.17509 34916 ft 482 kts 39°
2026-04-25 14:18 33.58971 -80.12344 34935 ft 483 kts 39°
2026-04-25 14:19 33.64201 -80.07296 34939 ft 482 kts 34°
2026-04-25 14:19 33.69952 -80.03312 34934 ft 480 kts 26°
2026-04-25 14:20 33.75937 -79.99755 34941 ft 480 kts 25°
2026-04-25 14:20 33.81918 -79.96172 34931 ft 480 kts 26°
2026-04-25 14:21 33.87888 -79.92542 34933 ft 480 kts 26°
2026-04-25 14:21 33.93810 -79.88923 34929 ft 480 kts 26°
2026-04-25 14:22 33.99767 -79.85277 34929 ft 480 kts 26°
2026-04-25 14:22 34.05715 -79.81632 34926 ft 480 kts 26°
2026-04-25 14:23 34.11670 -79.77977 34929 ft 480 kts 26°
2026-04-25 14:23 34.17622 -79.74320 34930 ft 480 kts 26°
2026-04-25 14:24 34.23574 -79.70648 34931 ft 480 kts 26°
2026-04-25 14:24 34.29489 -79.66989 34922 ft 480 kts 26°
2026-04-25 14:25 34.35441 -79.63303 34931 ft 481 kts 26°
2026-04-25 14:25 34.41413 -79.59602 34923 ft 481 kts 26°
2026-04-25 14:26 34.47377 -79.55904 34925 ft 482 kts 26°
2026-04-25 14:26 34.53321 -79.52212 34921 ft 483 kts 26°
2026-04-25 14:27 34.59263 -79.48381 34921 ft 484 kts 28°
2026-04-25 14:27 34.65142 -79.44352 34939 ft 484 kts 28°
2026-04-25 14:28 34.71037 -79.40369 34923 ft 484 kts 28°
2026-04-25 14:28 34.76926 -79.36390 34946 ft 484 kts 28°
2026-04-25 14:29 34.82820 -79.32395 34925 ft 484 kts 28°
2026-04-25 14:29 34.88676 -79.28422 34923 ft 485 kts 28°
2026-04-25 14:30 34.94571 -79.24416 34912 ft 485 kts 28°
2026-04-25 14:30 35.00639 -79.20971 34902 ft 478 kts 10°
2026-04-25 14:30 35.03942 -79.20624 34900 ft 475 kts 354°
2026-04-25 14:31 35.10367 -79.22204 34906 ft 474 kts 343°
2026-04-25 14:31 35.16706 -79.24540 34920 ft 476 kts 341°
2026-04-25 14:32 35.21977 -79.26562 34920 ft 478 kts 341°
2026-04-25 14:32 35.28408 -79.28579 34914 ft 479 kts 356°
2026-04-25 14:33 35.31742 -79.28332 34927 ft 482 kts
2026-04-25 14:33 35.34991 -79.27235 34929 ft 485 kts 20°
2026-04-25 14:33 35.37999 -79.25367 34916 ft 488 kts 34°
2026-04-25 14:33 35.40647 -79.22841 34916 ft 488 kts 38°
2026-04-25 14:34 35.45881 -79.17474 34915 ft 491 kts 38°
2026-04-25 14:34 35.51159 -79.12088 34923 ft 494 kts 38°
2026-04-25 14:35 35.56509 -79.06738 34922 ft 495 kts 37°
2026-04-25 14:35 35.61856 -79.01435 34918 ft 497 kts 37°
2026-04-25 14:36 35.67248 -78.96082 34914 ft 497 kts 37°
2026-04-25 14:36 35.72606 -78.90743 34904 ft 498 kts 37°
2026-04-25 14:37 35.77990 -78.85369 34903 ft 497 kts 37°
2026-04-25 14:37 35.83368 -78.79992 34908 ft 497 kts 37°
2026-04-25 14:38 35.88704 -78.74646 34908 ft 496 kts 37°
2026-04-25 14:38 35.94057 -78.69273 34902 ft 495 kts 37°
2026-04-25 14:39 35.99401 -78.63900 34898 ft 494 kts 37°
2026-04-25 14:39 36.04700 -78.58563 34906 ft 494 kts 37°
2026-04-25 14:40 36.10038 -78.53178 34911 ft 494 kts 37°
2026-04-25 14:40 36.15380 -78.47776 34909 ft 495 kts 37°
2026-04-25 14:41 36.20719 -78.42369 34896 ft 495 kts 36°
2026-04-25 14:41 36.26018 -78.36992 34898 ft 496 kts 36°
2026-04-25 14:42 36.30496 -78.32441 34887 ft 497 kts 36°
2026-04-25 14:42 36.36903 -78.26470 34885 ft 492 kts 26°
2026-04-25 14:43 36.43077 -78.22958 34882 ft 486 kts 14°
2026-04-25 14:43 36.49570 -78.20617 34915 ft 485 kts 12°
2026-04-25 14:44 36.56043 -78.18360 34924 ft 486 kts 12°
2026-04-25 14:44 36.62542 -78.16041 34942 ft 486 kts 12°
2026-04-25 14:45 36.69064 -78.13673 34947 ft 487 kts 12°
2026-04-25 14:45 36.75563 -78.11301 34946 ft 487 kts 12°
2026-04-25 14:46 36.82036 -78.08937 34936 ft 487 kts 12°
2026-04-25 14:46 36.88556 -78.06554 34918 ft 487 kts 12°
2026-04-25 14:47 36.93973 -78.04571 34880 ft 487 kts 12°
2026-04-25 14:47 37.01543 -78.01794 34891 ft 487 kts 12°
2026-04-25 14:48 37.08048 -77.99403 34887 ft 487 kts 12°
2026-04-25 14:48 37.14551 -77.97008 34894 ft 487 kts 12°
2026-04-25 14:49 37.21053 -77.94611 34886 ft 487 kts 12°
2026-04-25 14:49 37.27530 -77.92218 34890 ft 487 kts 12°
2026-04-25 14:50 37.34050 -77.89804 34887 ft 487 kts 11°
2026-04-25 14:50 37.40561 -77.87390 34904 ft 488 kts 11°
2026-04-25 14:51 37.47080 -77.84968 34909 ft 488 kts 11°
2026-04-25 14:51 37.53553 -77.82494 34918 ft 491 kts 15°
2026-04-25 14:52 37.59934 -77.79237 34923 ft 493 kts 18°
2026-04-25 14:52 37.65188 -77.76415 34932 ft 494 kts 18°
2026-04-25 14:53 37.72561 -77.72484 34931 ft 494 kts 17°
2026-04-25 14:53 37.78915 -77.69129 34935 ft 494 kts 17°
2026-04-25 14:54 37.85269 -77.65779 34942 ft 494 kts 17°
2026-04-25 14:54 37.91614 -77.62425 34934 ft 494 kts 17°
2026-04-25 14:55 37.97921 -77.59084 34936 ft 494 kts 17°
2026-04-25 14:55 38.04276 -77.55710 34940 ft 494 kts 17°
2026-04-25 14:56 38.10617 -77.52337 34939 ft 494 kts 17°
2026-04-25 14:56 38.16955 -77.48959 34934 ft 494 kts 17°
2026-04-25 14:57 38.23247 -77.45600 34933 ft 493 kts 17°
2026-04-25 14:57 38.29581 -77.42211 34940 ft 493 kts 17°
2026-04-25 14:58 38.35914 -77.38803 34960 ft 494 kts 19°
2026-04-25 14:58 38.41784 -77.34138 34953 ft 506 kts 34°
2026-04-25 14:59 38.46789 -77.27714 34962 ft 513 kts 44°
2026-04-25 14:59 38.51454 -77.20791 34968 ft 514 kts 44°
2026-04-25 15:00 38.56141 -77.13891 34967 ft 513 kts 44°
2026-04-25 15:00 38.60863 -77.07039 34940 ft 513 kts 43°
2026-04-25 15:01 38.65570 -77.00226 34950 ft 513 kts 43°
2026-04-25 15:01 38.70286 -76.93368 34984 ft 513 kts 43°
2026-04-25 15:02 38.74978 -76.86526 34978 ft 513 kts 43°
2026-04-25 15:02 38.79690 -76.79641 34970 ft 512 kts 44°
2026-04-25 15:03 38.84382 -76.72766 34975 ft 512 kts 44°
2026-04-25 15:03 38.89079 -76.65867 34974 ft 511 kts 44°
2026-04-25 15:04 38.93726 -76.59026 35001 ft 511 kts 44°
2026-04-25 15:04 38.98397 -76.52136 34999 ft 510 kts 44°
2026-04-25 15:05 39.03065 -76.45236 34989 ft 510 kts 44°
2026-04-25 15:06 39.10020 -76.34925 35010 ft 509 kts 44°
2026-04-25 15:06 39.14660 -76.28028 35015 ft 509 kts 44°
2026-04-25 15:07 39.19264 -76.21167 35005 ft 508 kts 44°
2026-04-25 15:07 39.23894 -76.14255 35022 ft 508 kts 44°
2026-04-25 15:08 39.28513 -76.07354 35011 ft 507 kts 43°
2026-04-25 15:08 39.33137 -76.00450 35017 ft 507 kts 43°
2026-04-25 15:09 39.37725 -75.93583 35019 ft 507 kts 43°
2026-04-25 15:09 39.44642 -75.83197 35029 ft 507 kts 43°
2026-04-25 15:10 39.49235 -75.76278 35032 ft 507 kts 43°
2026-04-25 15:11 39.56106 -75.65903 35038 ft 507 kts 43°
2026-04-25 15:11 39.60691 -75.58958 35040 ft 506 kts 43°
2026-04-25 15:12 39.67460 -75.48395 35043 ft 510 kts 47°
2026-04-25 15:12 39.70251 -75.43443 35026 ft 511 kts 48°
2026-04-25 15:13 39.77841 -75.29716 35064 ft 510 kts 48°
2026-04-25 15:14 39.81989 -75.22272 35070 ft 510 kts 48°
2026-04-25 15:14 39.86160 -75.14784 35067 ft 510 kts 48°
2026-04-25 15:15 39.90321 -75.07292 35068 ft 510 kts 48°
2026-04-25 15:15 39.94470 -74.99799 35083 ft 510 kts 48°
2026-04-25 15:16 39.98566 -74.92313 35082 ft 511 kts 49°
2026-04-25 15:16 40.04445 -74.80677 35085 ft 511 kts 51°
2026-04-25 15:17 40.10309 -74.69059 35081 ft 509 kts 50°
2026-04-25 15:18 40.14201 -74.61385 35085 ft 509 kts 50°
2026-04-25 15:18 40.19553 -74.51287 35076 ft 502 kts 43°
2026-04-25 15:19 40.23521 -74.45839 35089 ft 492 kts 34°
2026-04-25 15:19 40.29704 -74.39259 35094 ft 489 kts 31°
2026-04-25 15:20 40.34977 -74.33716 35113 ft 489 kts 32°
2026-04-25 15:20 40.40273 -74.28065 35120 ft 490 kts 32°
2026-04-25 15:21 40.45550 -74.22394 35129 ft 490 kts 32°
2026-04-25 15:21 40.50825 -74.16717 35130 ft 490 kts 32°
2026-04-25 15:22 40.56094 -74.11039 35134 ft 489 kts 32°
2026-04-25 15:22 40.61328 -74.05395 35123 ft 489 kts 32°
2026-04-25 15:23 40.66588 -73.99713 35125 ft 489 kts 32°
2026-04-25 15:23 40.71842 -73.94023 35124 ft 488 kts 32°
2026-04-25 15:24 40.77100 -73.88316 35122 ft 488 kts 32°
2026-04-25 15:24 40.81450 -73.83586 35123 ft 487 kts 32°
2026-04-25 15:25 40.87900 -73.77873 35125 ft 473 kts 20°
2026-04-25 15:25 40.93883 -73.74548 35128 ft 463 kts 12°
2026-04-25 15:26 40.99985 -73.71711 35120 ft 463 kts 12°
2026-04-25 15:26 41.06035 -73.68862 35122 ft 463 kts 12°
2026-04-25 15:27 41.12106 -73.65954 35121 ft 463 kts 12°
2026-04-25 15:28 41.21196 -73.61576 35129 ft 463 kts 12°
2026-04-25 15:28 41.27258 -73.58807 35145 ft 459 kts
2026-04-25 15:29 41.33486 -73.57303 35143 ft 449 kts 359°
2026-04-25 15:29 41.39714 -73.56504 35140 ft 450 kts 358°
2026-04-25 15:30 41.45912 -73.55713 35135 ft 450 kts 359°
2026-04-25 15:30 41.52160 -73.54883 35137 ft 451 kts 359°
2026-04-25 15:31 41.58409 -73.54035 35132 ft 451 kts 359°
2026-04-25 15:31 41.64658 -73.53182 35114 ft 451 kts 359°
2026-04-25 15:32 41.70869 -73.52331 35114 ft 451 kts 359°
2026-04-25 15:32 41.77126 -73.51475 35114 ft 451 kts 359°
2026-04-25 15:33 41.86460 -73.50196 35106 ft 451 kts 359°
2026-04-25 15:33 41.92708 -73.49337 35094 ft 450 kts 359°
2026-04-25 15:34 41.98941 -73.48477 35086 ft 450 kts 359°
2026-04-25 15:34 42.04123 -73.47762 35095 ft 449 kts 359°
2026-04-25 15:35 42.14469 -73.46331 35072 ft 449 kts 359°
2026-04-25 15:36 42.23785 -73.45038 35084 ft 447 kts 359°
2026-04-25 15:36 42.29967 -73.44177 35081 ft 447 kts 359°
2026-04-25 15:37 42.36159 -73.43315 35083 ft 447 kts 359°
2026-04-25 15:37 42.42315 -73.42456 35093 ft 447 kts 359°
2026-04-25 15:38 42.48530 -73.41586 35082 ft 448 kts 359°
2026-04-25 15:38 42.54745 -73.40714 35086 ft 449 kts 359°
2026-04-25 15:39 42.60936 -73.39844 35103 ft 449 kts 359°
2026-04-25 15:39 42.67168 -73.38967 35109 ft 449 kts 359°
2026-04-25 15:40 42.71287 -73.38386 35112 ft 449 kts 359°
2026-04-25 15:40 42.79587 -73.37213 35106 ft 450 kts 359°
2026-04-25 15:41 42.85823 -73.36330 35107 ft 451 kts 359°
2026-04-25 15:41 42.92081 -73.35441 35106 ft 451 kts 359°
2026-04-25 15:42 42.98292 -73.34559 35104 ft 452 kts 359°
2026-04-25 15:42 43.04555 -73.33790 35094 ft 450 kts 357°
2026-04-25 15:43 43.10800 -73.33175 35093 ft 450 kts 356°
2026-04-25 15:43 43.17048 -73.32556 35105 ft 450 kts 357°
2026-04-25 15:44 43.23288 -73.31917 35101 ft 450 kts 357°
2026-04-25 15:44 43.29516 -73.31265 35111 ft 450 kts 357°
2026-04-25 15:45 43.35771 -73.30610 35103 ft 450 kts 357°
2026-04-25 15:45 43.39917 -73.30175 35115 ft 450 kts 357°
2026-04-25 15:46 43.48249 -73.29297 35104 ft 450 kts 357°
2026-04-25 15:46 43.54457 -73.28642 35106 ft 450 kts 357°
2026-04-25 15:47 43.60715 -73.27981 35103 ft 450 kts 357°
2026-04-25 15:47 43.66972 -73.27320 35111 ft 450 kts 357°
2026-04-25 15:48 43.73183 -73.26660 35098 ft 451 kts 357°
2026-04-25 15:48 43.79447 -73.25995 35104 ft 451 kts 357°
2026-04-25 15:49 43.85710 -73.25327 35107 ft 451 kts 357°
2026-04-25 15:49 43.91981 -73.24658 35111 ft 451 kts 357°
2026-04-25 15:50 43.98224 -73.23933 35102 ft 453 kts
2026-04-25 15:50 44.01290 -73.22603 35116 ft 471 kts 19°
2026-04-25 15:50 44.04104 -73.20147 35109 ft 486 kts 31°
2026-04-25 15:51 44.06486 -73.16710 35097 ft 501 kts 46°
2026-04-25 15:51 44.07144 -73.15432 35113 ft 503 kts 48°
2026-04-25 15:51 44.12372 -73.04548 35130 ft 506 kts 49°
2026-04-25 15:52 44.16264 -72.96449 35134 ft 506 kts 48°
2026-04-25 15:52 44.20228 -72.88366 35148 ft 504 kts 47°
2026-04-25 15:53 44.24199 -72.80319 35157 ft 503 kts 47°
2026-04-25 15:53 44.28162 -72.72271 35158 ft 501 kts 47°
2026-04-25 15:54 44.32070 -72.64300 35147 ft 499 kts 47°
2026-04-25 15:54 44.35981 -72.56298 35154 ft 498 kts 47°
2026-04-25 15:55 44.39881 -72.48293 35140 ft 496 kts 47°
2026-04-25 15:55 44.43757 -72.40319 35139 ft 495 kts 47°
2026-04-25 15:56 44.47625 -72.32336 35129 ft 493 kts 47°
2026-04-25 15:56 44.51450 -72.24425 35125 ft 492 kts 47°
2026-04-25 15:57 44.55292 -72.16454 35124 ft 491 kts 47°
2026-04-25 15:57 44.59083 -72.08568 35123 ft 490 kts 47°
2026-04-25 15:58 44.62890 -72.00625 35124 ft 489 kts 47°
2026-04-25 15:58 44.66680 -71.92696 35126 ft 488 kts 47°
2026-04-25 15:59 44.70460 -71.84770 35135 ft 487 kts 47°
2026-04-25 15:59 44.74227 -71.76847 35135 ft 488 kts 47°
2026-04-25 16:00 44.76727 -71.71577 35130 ft 488 kts 47°
2026-04-25 16:00 44.81726 -71.61014 35121 ft 486 kts 47°
2026-04-25 16:01 44.85476 -71.53081 35156 ft 487 kts 47°
2026-04-25 16:01 44.89243 -71.45057 35154 ft 492 kts 47°
2026-04-25 16:02 44.93028 -71.36974 35145 ft 494 kts 47°
2026-04-25 16:02 44.96791 -71.28920 35152 ft 494 kts 47°
2026-04-25 16:03 45.00571 -71.20809 35135 ft 493 kts 47°
2026-04-25 16:03 45.04332 -71.12718 35141 ft 491 kts 47°
2026-04-25 16:04 45.08074 -71.04647 35139 ft 488 kts 47°
2026-04-25 16:04 45.11973 -70.96979 35142 ft 475 kts 39°
2026-04-25 16:05 45.16434 -70.90172 35149 ft 470 kts 38°
2026-04-25 16:06 45.23147 -70.80057 35141 ft 469 kts 38°
2026-04-25 16:06 45.27599 -70.73258 35131 ft 469 kts 39°
2026-04-25 16:07 45.32010 -70.66473 35168 ft 471 kts 39°
2026-04-25 16:07 45.35708 -70.60770 35135 ft 472 kts 39°
2026-04-25 16:08 45.40165 -70.53881 35148 ft 473 kts 39°
2026-04-25 16:08 45.44631 -70.46961 35145 ft 475 kts 39°
2026-04-25 16:09 45.49108 -70.40004 35136 ft 477 kts 40°
2026-04-25 16:09 45.53590 -70.33025 35142 ft 478 kts 40°
2026-04-25 16:10 45.57324 -70.27195 35146 ft 479 kts 40°
2026-04-25 16:10 45.62562 -70.18997 35141 ft 479 kts 41°
2026-04-25 16:11 45.67060 -70.11938 35134 ft 479 kts 41°
2026-04-25 16:11 45.71541 -70.04885 35130 ft 479 kts 42°
2026-04-25 16:12 45.76020 -69.97819 35136 ft 478 kts 42°
2026-04-25 16:12 45.80453 -69.90809 35132 ft 477 kts 42°
2026-04-25 16:13 45.84911 -69.83739 35135 ft 476 kts 42°
2026-04-25 16:13 45.89359 -69.76670 35118 ft 476 kts 43°
2026-04-25 16:14 45.93764 -69.69650 35124 ft 475 kts 43°
2026-04-25 16:14 45.98189 -69.62579 35122 ft 474 kts 43°
2026-04-25 16:15 46.02594 -69.55522 35126 ft 473 kts 43°
2026-04-25 16:15 46.06991 -69.48461 35123 ft 473 kts 43°
2026-04-25 16:16 46.11358 -69.41430 35128 ft 473 kts 44°
2026-04-25 16:16 46.15743 -69.34350 35120 ft 473 kts 44°
2026-04-25 16:17 46.20123 -69.27260 35124 ft 473 kts 44°
2026-04-25 16:17 46.24467 -69.20212 35125 ft 472 kts 44°
2026-04-25 16:18 46.28831 -69.13111 35122 ft 472 kts 44°
2026-04-25 16:18 46.33197 -69.05990 35106 ft 472 kts 44°
2026-04-25 16:19 46.37558 -68.98858 35104 ft 472 kts 45°
2026-04-25 16:19 46.41911 -68.91718 35108 ft 472 kts 45°
2026-04-25 16:20 46.48399 -68.81046 35114 ft 472 kts 45°
2026-04-25 16:21 46.54906 -68.70298 35121 ft 471 kts 45°
2026-04-25 16:21 46.59240 -68.63116 35116 ft 471 kts 45°
2026-04-25 16:22 46.63538 -68.55974 35122 ft 471 kts 46°
2026-04-25 16:22 46.67851 -68.48792 35112 ft 471 kts 46°
2026-04-25 16:23 46.72139 -68.41629 35113 ft 470 kts 46°
2026-04-25 16:23 46.76441 -68.34425 35109 ft 470 kts 46°
2026-04-25 16:24 46.80730 -68.27223 35092 ft 469 kts 46°
2026-04-25 16:24 46.85001 -68.20033 35074 ft 468 kts 46°
2026-04-25 16:25 46.89238 -68.12881 35068 ft 468 kts 47°
2026-04-25 16:25 46.93489 -68.05685 35066 ft 467 kts 47°
2026-04-25 16:26 46.97731 -67.98487 35071 ft 465 kts 46°
2026-04-25 16:26 47.01954 -67.91302 35072 ft 464 kts 47°
2026-04-25 16:27 47.06159 -67.84130 35084 ft 463 kts 47°
2026-04-25 16:27 47.10357 -67.76949 35083 ft 462 kts 47°
2026-04-25 16:28 47.14532 -67.69788 35088 ft 461 kts 47°
2026-04-25 16:28 47.18677 -67.62661 35090 ft 461 kts 47°
2026-04-25 16:29 47.22836 -67.55490 35088 ft 460 kts 47°
2026-04-25 16:29 47.26991 -67.48307 35088 ft 460 kts 47°
2026-04-25 16:30 47.31140 -67.41116 35087 ft 460 kts 47°
2026-04-25 16:30 47.35255 -67.33966 35083 ft 460 kts 47°
2026-04-25 16:31 47.39369 -67.26704 35072 ft 461 kts 49°
2026-04-25 16:31 47.43359 -67.19271 35069 ft 461 kts 50°
2026-04-25 16:32 47.47321 -67.11801 35096 ft 462 kts 50°
2026-04-25 16:32 47.51273 -67.04371 35079 ft 462 kts 50°
2026-04-25 16:33 47.55256 -66.96894 35085 ft 462 kts 50°
2026-04-25 16:33 47.59243 -66.89400 35082 ft 463 kts 50°
2026-04-25 16:34 47.63225 -66.81891 35083 ft 463 kts 50°
2026-04-25 16:34 47.67178 -66.74418 35080 ft 463 kts 50°
2026-04-25 16:35 47.71156 -66.66876 35083 ft 463 kts 50°
2026-04-25 16:35 47.75129 -66.59322 35079 ft 463 kts 50°
2026-04-25 16:36 47.79071 -66.51806 35078 ft 463 kts 50°
2026-04-25 16:36 47.83024 -66.44249 35074 ft 462 kts 50°
2026-04-25 16:37 47.86970 -66.36683 35080 ft 462 kts 50°
2026-04-25 16:37 47.90907 -66.29114 35070 ft 462 kts 50°
2026-04-25 16:38 47.94836 -66.21541 35071 ft 461 kts 51°
2026-04-25 16:38 47.98738 -66.13998 35056 ft 461 kts 51°
2026-04-25 16:39 48.02643 -66.06426 35050 ft 460 kts 51°
2026-04-25 16:39 48.06548 -65.98835 35049 ft 460 kts 51°
2026-04-25 16:40 48.10444 -65.91239 35049 ft 460 kts 51°
2026-04-25 16:40 48.14308 -65.83687 35048 ft 459 kts 51°
2026-04-25 16:41 48.18192 -65.76073 35048 ft 460 kts 51°
2026-04-25 16:41 48.24011 -65.64626 35049 ft 460 kts 51°
2026-04-25 16:42 48.27868 -65.57010 35043 ft 460 kts 51°
2026-04-25 16:42 48.31746 -65.49331 35044 ft 460 kts 52°
2026-04-25 16:43 48.35612 -65.41655 35040 ft 460 kts 52°
2026-04-25 16:43 48.39475 -65.33964 35052 ft 461 kts 52°
2026-04-25 16:44 48.43344 -65.26239 35036 ft 460 kts 52°
2026-04-25 16:44 48.47172 -65.18574 35043 ft 460 kts 52°
2026-04-25 16:45 48.50971 -65.10944 35037 ft 460 kts 52°
2026-04-25 16:45 48.54810 -65.03213 35033 ft 460 kts 52°
2026-04-25 16:46 48.58646 -64.95464 35041 ft 460 kts 52°
2026-04-25 16:46 48.61182 -64.90331 35045 ft 460 kts 52°
2026-04-25 16:47 48.66273 -64.79995 35047 ft 460 kts 52°
2026-04-25 16:47 48.70091 -64.72218 35048 ft 459 kts 53°
2026-04-25 16:48 48.73902 -64.64431 35048 ft 459 kts 53°
2026-04-25 16:48 48.77682 -64.56687 35048 ft 459 kts 53°
2026-04-25 16:49 48.81473 -64.48896 35052 ft 459 kts 53°
2026-04-25 16:49 48.85266 -64.41079 35045 ft 459 kts 53°
2026-04-25 16:50 48.89046 -64.33267 35047 ft 458 kts 53°
2026-04-25 16:50 48.92800 -64.25486 35044 ft 458 kts 53°
2026-04-25 16:51 48.96574 -64.17640 35030 ft 458 kts 53°
2026-04-25 16:51 48.99063 -64.12452 35033 ft 458 kts 53°
2026-04-25 16:52 49.04070 -64.01987 35020 ft 458 kts 54°
2026-04-25 16:52 49.07823 -63.94118 35015 ft 458 kts 54°
2026-04-25 16:53 49.13420 -63.82335 35006 ft 458 kts 54°
2026-04-25 16:54 49.17160 -63.74434 35002 ft 458 kts 54°
2026-04-25 16:54 49.20264 -63.67858 34996 ft 458 kts 54°
2026-04-25 16:55 49.23359 -63.61286 35002 ft 458 kts 54°
2026-04-25 16:55 49.27706 -63.52028 34991 ft 458 kts 54°
2026-04-25 16:56 49.31397 -63.44142 34997 ft 457 kts 55°
2026-04-25 16:56 49.35130 -63.36141 34995 ft 457 kts 55°
2026-04-25 16:57 49.38800 -63.28254 34995 ft 457 kts 55°
2026-04-25 16:57 49.42487 -63.20303 34987 ft 456 kts 55°
2026-04-25 16:58 49.46144 -63.12396 34975 ft 456 kts 55°
2026-04-25 16:58 49.49822 -63.04420 34972 ft 456 kts 56°
2026-04-25 16:59 49.53488 -62.96445 34974 ft 456 kts 56°
2026-04-25 16:59 49.57126 -62.88509 34977 ft 456 kts 56°
2026-04-25 17:00 49.60781 -62.80511 34974 ft 456 kts 56°
2026-04-25 17:00 49.64424 -62.72514 34971 ft 455 kts 56°
2026-04-25 17:01 49.68050 -62.64519 34626 ft 451 kts 56°
2026-04-25 17:01 49.69853 -62.60544 34288 ft 451 kts 56°
2026-04-25 17:01 49.71634 -62.56617 33997 ft 452 kts 56°
2026-04-25 17:02 49.75241 -62.48635 33954 ft 452 kts 57°
2026-04-25 17:02 49.78819 -62.40686 33945 ft 452 kts 57°
2026-04-25 17:03 49.82414 -62.32672 33935 ft 452 kts 57°
2026-04-25 17:03 49.86004 -62.24649 33932 ft 452 kts 57°
2026-04-25 17:04 49.89568 -62.16660 33927 ft 453 kts 57°
2026-04-25 17:04 49.93145 -62.08616 33918 ft 453 kts 57°
2026-04-25 17:05 49.96727 -62.00538 33913 ft 453 kts 57°
2026-04-25 17:05 50.02072 -61.88439 33905 ft 452 kts 57°
2026-04-25 17:06 50.05610 -61.80398 33909 ft 452 kts 57°
2026-04-25 17:06 50.09170 -61.72283 33904 ft 452 kts 57°
2026-04-25 17:07 50.12717 -61.64174 33907 ft 452 kts 57°
2026-04-25 17:07 50.16233 -61.56110 33903 ft 452 kts 57°
2026-04-25 17:08 50.19768 -61.47978 33900 ft 452 kts 57°
2026-04-25 17:08 50.23293 -61.39843 33899 ft 452 kts 57°
2026-04-25 17:09 50.26798 -61.31731 33890 ft 452 kts 58°
2026-04-25 17:09 50.30313 -61.23568 33883 ft 452 kts 58°
2026-04-25 17:10 50.33815 -61.15411 33897 ft 451 kts 58°
2026-04-25 17:10 50.37310 -61.07244 33899 ft 451 kts 58°
2026-04-25 17:11 50.40778 -60.99117 33897 ft 450 kts 58°
2026-04-25 17:11 50.44255 -60.90944 33901 ft 450 kts 58°
2026-04-25 17:12 50.47729 -60.82751 33900 ft 449 kts 58°
2026-04-25 17:12 50.51166 -60.74621 33893 ft 449 kts 58°
2026-04-25 17:13 50.54043 -60.67795 33896 ft 449 kts 58°
2026-04-25 17:13 50.58050 -60.58258 33881 ft 449 kts 58°
2026-04-25 17:14 50.61484 -60.50058 33895 ft 449 kts 58°
2026-04-25 17:14 50.64917 -60.41834 33887 ft 448 kts 58°
2026-04-25 17:15 50.68338 -60.33614 33888 ft 448 kts 58°
2026-04-25 17:15 50.71748 -60.25395 33885 ft 448 kts 58°
2026-04-25 17:16 50.75132 -60.17212 33886 ft 447 kts 58°
2026-04-25 17:16 50.78538 -60.08948 33886 ft 447 kts 58°
2026-04-25 17:17 50.81927 -60.00701 33880 ft 447 kts 59°
2026-04-25 17:17 50.85290 -59.92493 33877 ft 447 kts 59°
2026-04-25 17:18 50.88665 -59.84228 33881 ft 447 kts 59°
2026-04-25 17:18 50.92037 -59.75943 33874 ft 447 kts 59°
2026-04-25 17:19 50.95398 -59.67659 33873 ft 447 kts 59°
2026-04-25 17:19 50.98741 -59.59395 33875 ft 447 kts 59°
2026-04-25 17:20 51.02092 -59.51082 33870 ft 446 kts 59°
2026-04-25 17:20 51.05440 -59.42751 33865 ft 446 kts 59°
2026-04-25 17:21 51.08762 -59.34457 33869 ft 446 kts 59°
2026-04-25 17:21 51.12094 -59.26112 33861 ft 446 kts 59°
2026-04-25 17:22 51.14861 -59.19162 33864 ft 446 kts 59°
2026-04-25 17:22 51.18726 -59.09424 33851 ft 445 kts 59°
2026-04-25 17:23 51.22033 -59.01062 33860 ft 445 kts 59°
2026-04-25 17:23 51.25313 -58.92740 33859 ft 446 kts 59°
2026-04-25 17:24 51.28609 -58.84350 33849 ft 445 kts 59°
2026-04-25 17:24 51.31901 -58.75946 33844 ft 445 kts 59°
2026-04-25 17:25 51.35186 -58.67530 33850 ft 445 kts 59°
2026-04-25 17:25 51.38444 -58.59157 33839 ft 445 kts 59°
2026-04-25 17:26 51.41717 -58.50716 33843 ft 445 kts 59°
2026-04-25 17:26 51.44977 -58.42281 33841 ft 445 kts 59°
2026-04-25 17:27 51.48215 -58.33877 33839 ft 445 kts 59°
2026-04-25 17:27 51.50395 -58.28204 33837 ft 445 kts 59°
2026-04-25 17:28 51.54713 -58.16927 33826 ft 445 kts 59°
2026-04-25 17:28 51.57929 -58.08497 33828 ft 445 kts 59°
2026-04-25 17:29 51.61166 -57.99983 33836 ft 445 kts 60°
2026-04-25 17:29 51.64389 -57.91479 33832 ft 445 kts 60°
2026-04-25 17:30 51.67616 -57.82936 33817 ft 446 kts 60°
2026-04-25 17:30 51.70832 -57.74391 33828 ft 445 kts 60°
2026-04-25 17:31 51.74025 -57.65876 33840 ft 447 kts 58°
2026-04-25 17:31 51.77244 -57.57268 33822 ft 448 kts 58°
2026-04-25 17:32 51.80472 -57.48607 33825 ft 449 kts 58°
2026-04-25 17:32 51.83683 -57.39965 33819 ft 450 kts 58°
2026-04-25 17:33 51.86906 -57.31255 33824 ft 451 kts 58°
2026-04-25 17:33 51.90135 -57.22517 33819 ft 452 kts 58°
2026-04-25 17:34 51.93345 -57.13802 33813 ft 453 kts 58°
2026-04-25 17:34 51.96565 -57.05010 33829 ft 453 kts 58°
2026-04-25 17:35 51.99758 -56.96240 33829 ft 454 kts 59°
2026-04-25 17:35 52.02968 -56.87407 33831 ft 454 kts 59°
2026-04-25 17:36 52.06186 -56.78529 33833 ft 455 kts 59°
2026-04-25 17:36 52.09395 -56.69644 33830 ft 456 kts 59°
2026-04-25 17:37 52.12584 -56.60786 33836 ft 456 kts 59°
2026-04-25 17:37 52.15794 -56.51838 33835 ft 457 kts 59°
2026-04-25 17:38 52.17939 -56.45838 33837 ft 457 kts 59°
2026-04-25 17:38 52.22188 -56.33915 33823 ft 458 kts 59°
2026-04-25 17:39 52.25385 -56.24906 33816 ft 457 kts 59°
2026-04-25 17:39 52.28567 -56.15908 33808 ft 456 kts 60°
2026-04-25 17:40 52.31729 -56.06933 33803 ft 455 kts 60°
2026-04-25 17:40 52.34344 -55.99486 33790 ft 454 kts 60°
2026-04-25 17:41 52.37972 -55.89063 33798 ft 452 kts 62°
2026-04-25 17:41 52.40033 -55.81111 33791 ft 452 kts 70°
2026-04-25 17:42 52.41630 -55.71183 33807 ft 453 kts 76°
2026-04-25 17:42 52.42890 -55.61046 33800 ft 453 kts 77°
2026-04-25 17:43 52.44128 -55.50978 33796 ft 453 kts 77°
2026-04-25 17:43 52.45389 -55.40831 33784 ft 453 kts 77°
2026-04-25 17:44 52.46653 -55.30683 33772 ft 454 kts 77°
2026-04-25 17:44 52.47912 -55.20529 33769 ft 454 kts 77°
2026-04-25 17:45 52.48952 -55.12073 33751 ft 455 kts 77°
2026-04-25 17:45 52.50400 -55.00218 33741 ft 455 kts 77°
2026-04-25 17:46 52.51635 -54.90018 33737 ft 456 kts 77°
2026-04-25 17:46 52.52863 -54.79790 33721 ft 457 kts 77°
2026-04-25 17:47 52.54085 -54.69533 33722 ft 457 kts 77°
2026-04-25 17:47 52.55293 -54.59323 33724 ft 457 kts 77°
2026-04-25 17:48 52.57095 -54.43938 33707 ft 459 kts 77°
2026-04-25 17:49 52.58289 -54.33635 33705 ft 459 kts 77°
2026-04-25 17:49 52.59476 -54.23314 33698 ft 459 kts 78°
2026-04-25 17:50 52.60656 -54.12975 33694 ft 459 kts 78°
2026-04-25 17:50 52.61825 -54.02643 33687 ft 459 kts 78°
2026-04-25 17:51 52.62979 -53.92355 33679 ft 459 kts 78°
2026-04-25 17:51 52.64133 -53.81984 33672 ft 459 kts 78°
2026-04-25 17:52 52.65271 -53.71676 33670 ft 459 kts 78°
2026-04-25 17:52 52.66405 -53.61316 33664 ft 460 kts 78°
2026-04-25 17:53 52.67531 -53.50939 33661 ft 460 kts 78°
2026-04-25 17:53 52.68649 -53.40541 33662 ft 460 kts 78°
2026-04-25 17:54 52.69757 -53.30198 33652 ft 460 kts 79°
2026-04-25 17:54 52.70857 -53.19790 33648 ft 460 kts 79°
2026-04-25 17:55 52.71949 -53.09370 33650 ft 460 kts 79°
2026-04-25 17:55 52.73024 -52.99030 33641 ft 460 kts 79°
2026-04-25 17:56 52.74096 -52.88594 33640 ft 460 kts 79°
2026-04-25 17:56 52.75156 -52.78214 33626 ft 461 kts 79°
2026-04-25 17:57 52.76220 -52.67765 33624 ft 461 kts 79°
2026-04-25 17:57 52.77269 -52.57312 33628 ft 461 kts 79°
2026-04-25 17:58 52.78299 -52.46878 33612 ft 461 kts 79°
2026-04-25 17:58 52.79327 -52.36398 33623 ft 461 kts 79°
2026-04-25 17:59 52.80343 -52.25979 33610 ft 461 kts 79°
2026-04-25 17:59 52.81360 -52.15499 33602 ft 461 kts 79°
2026-04-25 18:00 52.82360 -52.05023 33611 ft 460 kts 79°
2026-04-25 18:00 52.83349 -51.94516 33598 ft 462 kts 79°
2026-04-25 18:01 52.84327 -51.84091 33599 ft 461 kts 79°
2026-04-25 18:01 52.85305 -51.73568 33598 ft 462 kts 80°
2026-04-25 18:02 52.86273 -51.63032 33599 ft 464 kts 80°
2026-04-25 18:02 52.87234 -51.52403 33589 ft 468 kts 80°
2026-04-25 18:03 52.88196 -51.41762 33591 ft 470 kts 80°
2026-04-25 18:03 52.89152 -51.31034 33569 ft 470 kts 80°
2026-04-25 18:04 52.90092 -51.20354 33571 ft 466 kts 81°
2026-04-25 18:04 52.91012 -51.09802 33571 ft 467 kts 81°
2026-04-25 18:05 52.91936 -50.99113 33578 ft 470 kts 81°
2026-04-25 18:05 52.92849 -50.88388 33566 ft 467 kts 81°
2026-04-25 18:06 52.93744 -50.77755 33573 ft 464 kts 81°
2026-04-25 18:06 52.94630 -50.67130 33576 ft 468 kts 81°
2026-04-25 18:07 52.95519 -50.56373 33564 ft 470 kts 81°
2026-04-25 18:07 52.96392 -50.45659 33548 ft 465 kts 82°
2026-04-25 18:08 52.97247 -50.35070 33565 ft 467 kts 82°
2026-04-25 18:08 52.98104 -50.24335 33537 ft 468 kts 82°
2026-04-25 18:09 52.98938 -50.13661 33547 ft 465 kts 82°
2026-04-25 18:09 52.99773 -50.02994 33556 ft 467 kts 82°
2026-04-25 18:10 53.00778 -49.94157 33553 ft 468 kts 76°
2026-04-25 18:10 53.02565 -49.81978 33553 ft 466 kts 76°
2026-04-25 18:11 53.04098 -49.71464 33547 ft 469 kts 76°
2026-04-25 18:11 53.05597 -49.60926 33542 ft 467 kts 77°
2026-04-25 18:12 53.07080 -49.50406 33542 ft 468 kts 77°
2026-04-25 18:12 53.08554 -49.39882 33536 ft 467 kts 77°
2026-04-25 18:13 53.10012 -49.29339 33541 ft 467 kts 77°
2026-04-25 18:13 53.11469 -49.18775 33545 ft 468 kts 77°
2026-04-25 18:14 53.13633 -49.02953 33537 ft 468 kts 77°
2026-04-25 18:14 53.15057 -48.92406 33534 ft 463 kts 77°
2026-04-25 18:15 53.16462 -48.81971 33529 ft 459 kts 77°
2026-04-25 18:15 53.17845 -48.71607 33533 ft 456 kts 78°
2026-04-25 18:16 53.19214 -48.61265 33541 ft 457 kts 78°
2026-04-25 18:17 53.21247 -48.45783 33533 ft 456 kts 78°
2026-04-25 18:17 53.22596 -48.35425 33538 ft 457 kts 78°
2026-04-25 18:18 53.23940 -48.25026 33535 ft 459 kts 78°
2026-04-25 18:18 53.25277 -48.14609 33532 ft 459 kts 78°
2026-04-25 18:19 53.26610 -48.04132 33541 ft 463 kts 78°
2026-04-25 18:19 53.27943 -47.93582 33538 ft 466 kts 78°
2026-04-25 18:20 53.29270 -47.83006 33544 ft 468 kts 79°
2026-04-25 18:20 53.30601 -47.72313 33533 ft 469 kts 79°
2026-04-25 18:21 53.31924 -47.61599 33535 ft 469 kts 79°
2026-04-25 18:21 53.33230 -47.50933 33531 ft 468 kts 79°
2026-04-25 18:22 53.34516 -47.40354 33537 ft 467 kts 79°
2026-04-25 18:22 53.35801 -47.29701 33535 ft 465 kts 79°
2026-04-25 18:23 53.37073 -47.19070 33535 ft 464 kts 79°
2026-04-25 18:23 53.38331 -47.08469 33539 ft 463 kts 79°
2026-04-25 18:24 53.39579 -46.97866 33541 ft 463 kts 79°
2026-04-25 18:24 53.40809 -46.87329 33530 ft 463 kts 80°
2026-04-25 18:25 53.42037 -46.76729 33544 ft 463 kts 80°
2026-04-25 18:25 53.43254 -46.66128 33543 ft 463 kts 80°
2026-04-25 18:26 53.44261 -46.57300 33544 ft 463 kts 80°
2026-04-25 18:26 53.45463 -46.46671 33544 ft 463 kts 80°
2026-04-25 18:27 53.46656 -46.36034 33547 ft 463 kts 81°
2026-04-25 18:27 53.47833 -46.25451 33549 ft 464 kts 81°
2026-04-25 18:28 53.49009 -46.14781 33545 ft 464 kts 81°
2026-04-25 18:28 53.50175 -46.04117 33548 ft 464 kts 81°
2026-04-25 18:29 53.51899 -45.88173 33550 ft 464 kts 81°
2026-04-25 18:30 53.54171 -45.66836 33554 ft 464 kts 81°
2026-04-25 18:30 53.55295 -45.56139 33561 ft 464 kts 81°
2026-04-25 18:31 53.56408 -45.45448 33561 ft 463 kts 82°
2026-04-25 18:31 53.57511 -45.34753 33561 ft 463 kts 82°
2026-04-25 18:32 53.58604 -45.24064 33565 ft 463 kts 82°
2026-04-25 18:32 53.59681 -45.13426 33571 ft 463 kts 82°
2026-04-25 18:33 53.60754 -45.02731 33570 ft 463 kts 82°
2026-04-25 18:33 53.61818 -44.92028 33571 ft 463 kts 82°
2026-04-25 18:34 53.62873 -44.81312 33577 ft 463 kts 82°
2026-04-25 18:34 53.63913 -44.70649 33576 ft 464 kts 83°
2026-04-25 18:35 53.64951 -44.59901 33577 ft 464 kts 83°
2026-04-25 18:35 53.65980 -44.49135 33581 ft 464 kts 83°
2026-04-25 18:36 53.66998 -44.38385 33584 ft 465 kts 83°
2026-04-25 18:36 53.68010 -44.27596 33585 ft 465 kts 83°
2026-04-25 18:37 53.69006 -44.16852 33590 ft 465 kts 83°
2026-04-25 18:37 53.69998 -44.06055 33591 ft 466 kts 83°
2026-04-25 18:38 53.70982 -43.95235 33594 ft 466 kts 84°
2026-04-25 18:38 53.71957 -43.84395 33610 ft 467 kts 84°
2026-04-25 18:39 53.72924 -43.73532 33600 ft 468 kts 84°
2026-04-25 18:39 53.73883 -43.62651 33610 ft 468 kts 84°
2026-04-25 18:40 53.74831 -43.51768 33612 ft 469 kts 84°
2026-04-25 18:40 53.75772 -43.40855 33608 ft 469 kts 84°
2026-04-25 18:41 53.76702 -43.29938 33616 ft 469 kts 85°
2026-04-25 18:41 53.77619 -43.19063 33615 ft 470 kts 85°
2026-04-25 18:42 53.78384 -43.09895 33618 ft 470 kts 85°
2026-04-25 18:42 53.79435 -42.97155 33616 ft 470 kts 85°
2026-04-25 18:43 53.80330 -42.86173 33626 ft 471 kts 86°
2026-04-25 18:43 53.81207 -42.75276 33627 ft 471 kts 86°
2026-04-25 18:44 53.82081 -42.64295 33633 ft 471 kts 86°
2026-04-25 18:44 53.82947 -42.53281 33633 ft 471 kts 86°
2026-04-25 18:45 53.83802 -42.42282 33639 ft 471 kts 86°
2026-04-25 18:45 53.84640 -42.31357 33639 ft 470 kts 87°
2026-04-25 18:46 53.85474 -42.20361 33643 ft 470 kts 87°
2026-04-25 18:46 53.86296 -42.09385 33643 ft 469 kts 87°
2026-04-25 18:47 53.87107 -41.98405 33644 ft 469 kts 87°
2026-04-25 18:47 53.87907 -41.87445 33651 ft 468 kts 88°
2026-04-25 18:48 53.88696 -41.76484 33651 ft 468 kts 88°
2026-04-25 18:48 53.89474 -41.65540 33654 ft 467 kts 88°
2026-04-25 18:49 53.90238 -41.54669 33658 ft 466 kts 88°
2026-04-25 18:49 53.90996 -41.43708 33662 ft 466 kts 88°
2026-04-25 18:50 53.91738 -41.32845 33669 ft 465 kts 88°
2026-04-25 18:50 53.92473 -41.21936 33664 ft 465 kts 89°
2026-04-25 18:51 53.93077 -41.12852 33669 ft 465 kts 89°
2026-04-25 18:51 53.93915 -41.00079 33673 ft 465 kts 89°
2026-04-25 18:52 53.94615 -40.89233 33676 ft 465 kts 89°
2026-04-25 18:52 53.95313 -40.78268 33680 ft 466 kts 89°
2026-04-25 18:53 53.96000 -40.67307 33687 ft 466 kts 89°
2026-04-25 18:53 53.96673 -40.56425 33688 ft 467 kts 89°
2026-04-25 18:54 53.97672 -40.39958 33691 ft 467 kts 89°
2026-04-25 18:55 53.98326 -40.28958 33695 ft 467 kts 89°
2026-04-25 18:55 53.98971 -40.17951 33699 ft 467 kts 89°
2026-04-25 18:56 53.99602 -40.07019 33701 ft 467 kts 89°
2026-04-25 18:56 54.00208 -39.95982 33695 ft 467 kts 90°
2026-04-25 18:57 54.00660 -39.85040 33705 ft 466 kts 91°
2026-04-25 18:57 54.01070 -39.74012 33705 ft 467 kts 91°
2026-04-25 18:58 54.01482 -39.62988 33714 ft 467 kts 91°
2026-04-25 18:58 54.02102 -39.46487 33723 ft 468 kts 91°
2026-04-25 18:59 54.02906 -39.24330 33729 ft 469 kts 91°
2026-04-25 19:00 54.03480 -39.07750 33731 ft 470 kts 91°
2026-04-25 19:01 54.04039 -38.91040 33730 ft 471 kts 91°
2026-04-25 19:01 54.04393 -38.79963 33754 ft 472 kts 92°
2026-04-25 19:02 54.04907 -38.63170 33735 ft 474 kts 92°
2026-04-25 19:03 54.05293 -38.50107 33741 ft 476 kts 92°
2026-04-25 19:03 54.05721 -38.35094 33742 ft 477 kts 92°
2026-04-25 19:04 54.06182 -38.18112 33755 ft 478 kts 92°
2026-04-25 19:05 54.06758 -37.95484 33759 ft 480 kts 92°
2026-04-25 19:06 54.07032 -37.84102 33762 ft 480 kts 92°
2026-04-25 19:06 54.07421 -37.67079 33767 ft 481 kts 92°
2026-04-25 19:07 54.07788 -37.49944 33770 ft 482 kts 92°
2026-04-25 19:08 54.08132 -37.32789 33775 ft 483 kts 93°
2026-04-25 19:09 54.08485 -37.13728 33777 ft 484 kts 93°
2026-04-25 19:10 54.08840 -36.92697 33782 ft 485 kts 93°
2026-04-25 19:10 54.09017 -36.81275 33785 ft 485 kts 93°
2026-04-25 19:11 54.09185 -36.69746 33791 ft 486 kts 93°
2026-04-25 19:11 54.09341 -36.58282 33793 ft 487 kts 93°
2026-04-25 19:12 54.09487 -36.46729 33794 ft 487 kts 93°
2026-04-25 19:12 54.09622 -36.35173 33799 ft 488 kts 93°
2026-04-25 19:13 54.09725 -36.25564 33798 ft 488 kts 93°
2026-04-25 19:13 54.09841 -36.13954 33802 ft 489 kts 93°
2026-04-25 19:14 54.09945 -36.02351 33806 ft 490 kts 94°
2026-04-25 19:14 54.10037 -35.90789 33812 ft 491 kts 94°
2026-04-25 19:15 54.10119 -35.79153 33823 ft 491 kts 94°
2026-04-25 19:15 54.10190 -35.67489 33819 ft 492 kts 94°
2026-04-25 19:16 54.10250 -35.55810 33819 ft 493 kts 94°
2026-04-25 19:16 54.10298 -35.44116 33826 ft 494 kts 94°
2026-04-25 19:17 54.10335 -35.32383 33831 ft 494 kts 94°
2026-04-25 19:17 54.10361 -35.20716 33829 ft 495 kts 94°
2026-04-25 19:18 54.10376 -35.08968 33831 ft 495 kts 94°
2026-04-25 19:18 54.10379 -34.97269 33835 ft 496 kts 94°
2026-04-25 19:19 54.10370 -34.85485 33842 ft 496 kts 94°
2026-04-25 19:19 54.10350 -34.73697 33845 ft 497 kts 94°
2026-04-25 19:20 54.10319 -34.61911 33850 ft 498 kts 94°
2026-04-25 19:20 54.10276 -34.50185 33854 ft 498 kts 94°
2026-04-25 19:21 54.10221 -34.38352 33850 ft 499 kts 94°
2026-04-25 19:21 54.10118 -34.20644 33864 ft 499 kts 94°
2026-04-25 19:22 54.10034 -34.08779 33868 ft 500 kts 94°
2026-04-25 19:23 54.09887 -33.91042 33862 ft 500 kts 94°
2026-04-25 19:23 54.09713 -33.73270 33864 ft 501 kts 94°
2026-04-25 19:24 54.09582 -33.61378 33869 ft 501 kts 94°
2026-04-25 19:25 54.09286 -33.37647 33877 ft 502 kts 94°
2026-04-25 19:25 54.09120 -33.25728 33882 ft 502 kts 94°
2026-04-25 19:26 54.08941 -33.13808 33889 ft 503 kts 95°
2026-04-25 19:26 54.08753 -33.01965 33887 ft 503 kts 95°
2026-04-25 19:27 54.08586 -32.92037 33895 ft 503 kts 95°
2026-04-25 19:27 54.08338 -32.78148 33889 ft 504 kts 95°
2026-04-25 19:28 54.08112 -32.66205 33893 ft 504 kts 95°
2026-04-25 19:28 54.07874 -32.54243 33896 ft 505 kts 95°
2026-04-25 19:29 54.07625 -32.42290 33904 ft 505 kts 95°
2026-04-25 19:29 54.07364 -32.30387 33899 ft 505 kts 95°
2026-04-25 19:30 54.07090 -32.18405 33904 ft 506 kts 95°
2026-04-25 19:30 54.06806 -32.06494 33904 ft 506 kts 95°
2026-04-25 19:31 54.06508 -31.94501 33913 ft 506 kts 95°
2026-04-25 19:31 54.06197 -31.82487 33912 ft 507 kts 95°
2026-04-25 19:32 54.05876 -31.70534 33912 ft 507 kts 95°
2026-04-25 19:32 54.05599 -31.60553 33911 ft 507 kts 95°
2026-04-25 19:33 54.05195 -31.46507 33912 ft 508 kts 95°
2026-04-25 19:33 54.04837 -31.34539 33916 ft 508 kts 95°
2026-04-25 19:34 54.04466 -31.22514 33927 ft 508 kts 95°
2026-04-25 19:34 54.04083 -31.10490 33923 ft 509 kts 95°
2026-04-25 19:35 54.03690 -30.98522 33927 ft 509 kts 95°
2026-04-25 19:35 54.03281 -30.86457 33927 ft 510 kts 95°
2026-04-25 19:36 54.02863 -30.74451 33931 ft 510 kts 96°
2026-04-25 19:36 54.02429 -30.62365 33928 ft 511 kts 96°
2026-04-25 19:37 54.01986 -30.50350 33928 ft 512 kts 96°
2026-04-25 19:37 54.01528 -30.38256 33928 ft 512 kts 96°
2026-04-25 19:38 54.01056 -30.26120 33943 ft 513 kts 96°
2026-04-25 19:38 54.00577 -30.14085 33943 ft 514 kts 96°
2026-04-25 19:39 54.00096 -30.01942 33941 ft 515 kts 94°
2026-04-25 19:39 54.00305 -29.89746 33953 ft 517 kts 87°
2026-04-25 19:40 54.00848 -29.77604 33950 ft 518 kts 86°
2026-04-25 19:40 54.01378 -29.65363 33947 ft 519 kts 87°
2026-04-25 19:41 54.01859 -29.53166 33949 ft 519 kts 87°
2026-04-25 19:41 54.02165 -29.44939 33952 ft 520 kts 87°
2026-04-25 19:42 54.02755 -29.28565 33953 ft 521 kts 88°
2026-04-25 19:42 54.03183 -29.16326 33955 ft 521 kts 88°
2026-04-25 19:43 54.03603 -29.04006 33955 ft 521 kts 88°
2026-04-25 19:43 54.04011 -28.91654 33955 ft 521 kts 88°
2026-04-25 19:44 54.04404 -28.79395 33959 ft 522 kts 88°
2026-04-25 19:44 54.04787 -28.67055 33960 ft 522 kts 88°
2026-04-25 19:45 54.05158 -28.54690 33963 ft 522 kts 88°
2026-04-25 19:45 54.05513 -28.42413 33963 ft 522 kts 88°
2026-04-25 19:46 54.05859 -28.30030 33966 ft 522 kts 88°
2026-04-25 19:46 54.06189 -28.17733 33963 ft 523 kts 88°
2026-04-25 19:47 54.06509 -28.05366 33965 ft 523 kts 88°
2026-04-25 19:47 54.06817 -27.92966 33962 ft 523 kts 88°
2026-04-25 19:48 54.07112 -27.80587 33968 ft 523 kts 88°
2026-04-25 19:48 54.07394 -27.68189 33972 ft 523 kts 88°
2026-04-25 19:49 54.07574 -27.59987 33972 ft 523 kts 88°
2026-04-25 19:49 54.07919 -27.43458 33970 ft 524 kts 88°
2026-04-25 19:50 54.08280 -27.24907 33971 ft 524 kts 88°
2026-04-25 19:51 54.08505 -27.12479 33974 ft 524 kts 88°
2026-04-25 19:51 54.08718 -27.00036 33972 ft 525 kts 89°
2026-04-25 19:52 54.08918 -26.87581 33971 ft 525 kts 89°
2026-04-25 19:52 54.09104 -26.75226 33974 ft 525 kts 89°
2026-04-25 19:53 54.09278 -26.62783 33977 ft 525 kts 89°
2026-04-25 19:53 54.09440 -26.50325 33977 ft 525 kts 89°
2026-04-25 19:54 54.09588 -26.37935 33977 ft 525 kts 89°
2026-04-25 19:54 54.09724 -26.25480 33978 ft 525 kts 89°
2026-04-25 19:55 54.09848 -26.13025 33977 ft 525 kts 89°
2026-04-25 19:55 54.09958 -26.00579 33976 ft 525 kts 89°
2026-04-25 19:56 54.10055 -25.88207 33976 ft 525 kts 89°
2026-04-25 19:56 54.10139 -25.75821 33977 ft 525 kts 89°
2026-04-25 19:57 54.10211 -25.63365 33976 ft 525 kts 89°
2026-04-25 19:57 54.10270 -25.50900 33978 ft 525 kts 89°
2026-04-25 19:58 54.10316 -25.38528 33980 ft 525 kts 90°
2026-04-25 19:58 54.10349 -25.26058 33980 ft 525 kts 90°
2026-04-25 19:59 54.10370 -25.13589 33982 ft 525 kts 90°
2026-04-25 19:59 54.10377 -25.01196 33981 ft 525 kts 90°
2026-04-25 20:00 54.10372 -24.88723 33983 ft 526 kts 90°
2026-04-25 20:00 54.10354 -24.76258 33985 ft 526 kts 90°
2026-04-25 20:01 54.10303 -24.57610 33990 ft 526 kts 90°
2026-04-25 20:01 54.10253 -24.45138 33994 ft 526 kts 91°
2026-04-25 20:02 54.10190 -24.32720 33987 ft 526 kts 91°
2026-04-25 20:02 54.10127 -24.22336 33989 ft 526 kts 91°
2026-04-25 20:03 54.10025 -24.07799 33989 ft 526 kts 91°
2026-04-25 20:03 54.09941 -23.97344 33991 ft 526 kts 91°
2026-04-25 20:04 54.09829 -23.84936 33994 ft 526 kts 91°
2026-04-25 20:04 54.09703 -23.72451 33993 ft 526 kts 92°
2026-04-25 20:05 54.09565 -23.59983 33993 ft 526 kts 92°
2026-04-25 20:05 54.09414 -23.47504 33992 ft 526 kts 92°
2026-04-25 20:06 54.09251 -23.35106 33993 ft 526 kts 92°
2026-04-25 20:06 54.09073 -23.22619 33996 ft 526 kts 92°
2026-04-25 20:07 54.08885 -23.10242 34002 ft 526 kts 93°
2026-04-25 20:07 54.08682 -22.97763 33999 ft 525 kts 93°
2026-04-25 20:08 54.08467 -22.85319 33999 ft 525 kts 93°
2026-04-25 20:08 54.08240 -22.72931 34004 ft 525 kts 93°
2026-04-25 20:09 54.07999 -22.60476 34003 ft 525 kts 94°
2026-04-25 20:09 54.07746 -22.48037 34005 ft 525 kts 94°
2026-04-25 20:10 54.07480 -22.35610 34014 ft 525 kts 94°
2026-04-25 20:10 54.07202 -22.23263 34009 ft 524 kts 94°
2026-04-25 20:11 54.06911 -22.10850 34016 ft 524 kts 94°
2026-04-25 20:11 54.06606 -21.98428 34008 ft 524 kts 95°
2026-04-25 20:12 54.06289 -21.86022 34012 ft 524 kts 95°
2026-04-25 20:12 54.06017 -21.75738 34014 ft 523 kts 95°
2026-04-25 20:13 54.05621 -21.61337 34017 ft 523 kts 95°
2026-04-25 20:13 54.05266 -21.48962 34023 ft 523 kts 95°
2026-04-25 20:14 54.04900 -21.36598 34021 ft 523 kts 95°
2026-04-25 20:14 54.04522 -21.24291 34028 ft 523 kts 95°
2026-04-25 20:15 54.04129 -21.11906 34025 ft 523 kts 96°
2026-04-25 20:15 54.03726 -20.99616 34030 ft 523 kts 96°
2026-04-25 20:16 54.03309 -20.87257 34037 ft 522 kts 96°
2026-04-25 20:16 54.02880 -20.74924 34033 ft 522 kts 96°
2026-04-25 20:17 54.02805 -20.72829 34034 ft 522 kts 96°
2026-04-25 20:19 54.02411 -20.61862 34040 ft 521 kts 96°
2026-04-25 20:19 54.01956 -20.49550 34040 ft 521 kts 96°
2026-04-25 20:20 54.01489 -20.37231 34046 ft 520 kts 96°
2026-04-25 20:20 54.01013 -20.25021 34047 ft 520 kts 96°
2026-04-25 20:21 54.00524 -20.12756 34055 ft 519 kts 97°
2026-04-25 20:21 54.00042 -20.00576 34055 ft 519 kts 95°
2026-04-25 20:22 54.00094 -19.90361 34062 ft 520 kts 90°
2026-04-25 20:22 54.00426 -19.76054 34065 ft 519 kts 90°
2026-04-25 20:23 54.00690 -19.63780 34064 ft 518 kts 90°
2026-04-25 20:23 54.00912 -19.51502 34066 ft 518 kts 91°
2026-04-25 20:24 54.01107 -19.39343 34072 ft 517 kts 91°
2026-04-25 20:24 54.01290 -19.27101 34071 ft 516 kts 91°
2026-04-25 20:25 54.01462 -19.14894 34073 ft 515 kts 91°
2026-04-25 20:25 54.01622 -19.02767 34078 ft 515 kts 91°
2026-04-25 20:26 54.01771 -18.90568 34080 ft 514 kts 91°
2026-04-25 20:26 54.01907 -18.78430 34080 ft 513 kts 91°
2026-04-25 20:27 54.02029 -18.66370 34087 ft 513 kts 91°
2026-04-25 20:27 54.02140 -18.54233 34087 ft 512 kts 91°
2026-04-25 20:28 54.02239 -18.42137 34099 ft 511 kts 92°
2026-04-25 20:28 54.02325 -18.30040 34089 ft 511 kts 92°
2026-04-25 20:29 54.02399 -18.18004 34091 ft 510 kts 92°
2026-04-25 20:29 54.02461 -18.05936 34102 ft 509 kts 92°
2026-04-25 20:30 54.02511 -17.93883 34085 ft 509 kts 92°
2026-04-25 20:30 54.02549 -17.81859 34090 ft 508 kts 92°
2026-04-25 20:31 54.02575 -17.69854 34096 ft 507 kts 92°
2026-04-25 20:31 54.02588 -17.57941 34100 ft 506 kts 92°
2026-04-25 20:32 54.02590 -17.45945 34110 ft 506 kts 92°
2026-04-25 20:32 54.02580 -17.33975 34111 ft 505 kts 92°
2026-04-25 20:33 54.02558 -17.22091 34120 ft 505 kts 92°
2026-04-25 20:33 54.02531 -17.12075 34117 ft 505 kts 92°
2026-04-25 20:34 54.02479 -16.98151 34123 ft 505 kts 93°
2026-04-25 20:34 54.02422 -16.86262 34121 ft 505 kts 93°
2026-04-25 20:35 54.02353 -16.74281 34120 ft 506 kts 93°
2026-04-25 20:35 54.02272 -16.62312 34122 ft 506 kts 93°
2026-04-25 20:36 54.02179 -16.50405 34127 ft 506 kts 94°
2026-04-25 20:36 54.02075 -16.38420 34128 ft 507 kts 94°
2026-04-25 20:37 54.01958 -16.26433 34128 ft 507 kts 94°
2026-04-25 20:37 54.01828 -16.14404 34132 ft 507 kts 94°
2026-04-25 20:38 54.01688 -16.02454 34134 ft 508 kts 94°
2026-04-25 20:38 54.01535 -15.90413 34137 ft 509 kts 95°
2026-04-25 20:39 54.01370 -15.78416 34139 ft 509 kts 95°
2026-04-25 20:39 54.01252 -15.70347 34141 ft 510 kts 95°
2026-04-25 20:40 54.01003 -15.54345 34146 ft 510 kts 95°
2026-04-25 20:40 54.00801 -15.42260 34150 ft 511 kts 95°
2026-04-25 20:41 54.00587 -15.30172 34149 ft 511 kts 95°
2026-04-25 20:41 54.00361 -15.18096 34149 ft 511 kts 95°
2026-04-25 20:42 54.00125 -15.06082 34152 ft 511 kts 96°
2026-04-25 20:42 53.99929 -14.94001 34153 ft 512 kts 94°
2026-04-25 20:43 53.99987 -14.81896 34155 ft 512 kts 92°
2026-04-25 20:43 54.00074 -14.69763 34164 ft 512 kts 93°
2026-04-25 20:44 54.00106 -14.57735 34165 ft 511 kts 94°
2026-04-25 20:44 54.00105 -14.45642 34164 ft 511 kts 94°
2026-04-25 20:45 54.00091 -14.33557 34164 ft 511 kts 94°
2026-04-25 20:45 54.00068 -14.21465 34173 ft 511 kts 94°
2026-04-25 20:46 54.00036 -14.09447 34173 ft 511 kts 94°
2026-04-25 20:46 53.99983 -13.97362 34172 ft 510 kts 95°
2026-04-25 20:47 53.99773 -13.85292 34171 ft 510 kts 96°
2026-04-25 20:47 53.99490 -13.73248 34179 ft 510 kts 96°
2026-04-25 20:48 53.99210 -13.61277 34180 ft 510 kts 96°
2026-04-25 20:48 53.98935 -13.49220 34183 ft 509 kts 96°
2026-04-25 20:49 53.98654 -13.37171 34184 ft 509 kts 96°
2026-04-25 20:49 53.98362 -13.25178 34187 ft 509 kts 96°
2026-04-25 20:50 53.98056 -13.13131 34190 ft 509 kts 96°
2026-04-25 20:50 53.97740 -13.01180 34188 ft 509 kts 96°
2026-04-25 20:51 53.97409 -12.89131 34187 ft 509 kts 96°
2026-04-25 20:51 53.97068 -12.77159 34191 ft 509 kts 96°
2026-04-25 20:52 53.96832 -12.69092 34189 ft 509 kts 96°
2026-04-25 20:52 53.96411 -12.55171 34197 ft 509 kts 96°
2026-04-25 20:53 53.96035 -12.43154 34197 ft 509 kts 96°
2026-04-25 20:53 53.95647 -12.31135 34197 ft 509 kts 96°
2026-04-25 20:54 53.95247 -12.19125 34191 ft 509 kts 96°
2026-04-25 20:54 53.94837 -12.07182 34194 ft 509 kts 96°
2026-04-25 20:55 53.94412 -11.95160 34191 ft 509 kts 97°
2026-04-25 20:55 53.93976 -11.83137 34204 ft 509 kts 97°
2026-04-25 20:56 53.93528 -11.71135 34201 ft 509 kts 97°
2026-04-25 20:56 53.93067 -11.59149 34209 ft 515 kts 97°
2026-04-25 20:57 53.92583 -11.46884 34213 ft 522 kts 97°
2026-04-25 20:57 53.92085 -11.34547 34206 ft 526 kts 97°
2026-04-25 20:58 53.91573 -11.22145 34203 ft 528 kts 97°
2026-04-25 20:58 53.91049 -11.09781 34203 ft 528 kts 97°
2026-04-25 20:59 53.90508 -10.97334 34204 ft 527 kts 97°
2026-04-25 20:59 53.89959 -10.85000 34205 ft 526 kts 97°
2026-04-25 21:00 53.89492 -10.74734 34203 ft 525 kts 97°
2026-04-25 21:01 53.88531 -10.54191 34206 ft 523 kts 97°
2026-04-25 21:01 53.87942 -10.41975 34210 ft 522 kts 97°
2026-04-25 21:02 53.87339 -10.29715 34213 ft 522 kts 97°
2026-04-25 21:02 53.86723 -10.17439 34212 ft 521 kts 97°
2026-04-25 21:03 53.86098 -10.05262 34211 ft 521 kts 97°
2026-04-25 21:03 53.85457 -9.92998 34209 ft 522 kts 98°
2026-04-25 21:04 53.84805 -9.80762 34209 ft 522 kts 98°
2026-04-25 21:04 53.84139 -9.68510 34211 ft 522 kts 98°
2026-04-25 21:05 53.83466 -9.56360 34215 ft 522 kts 98°
2026-04-25 21:05 53.82775 -9.44121 34210 ft 522 kts 98°
2026-04-25 21:06 53.82070 -9.31843 34209 ft 522 kts 98°
2026-04-25 21:06 53.81354 -9.19604 34205 ft 522 kts 98°
2026-04-25 21:07 53.80630 -9.07442 34206 ft 522 kts 98°
2026-04-25 21:07 53.79889 -8.95208 34201 ft 522 kts 98°
2026-04-25 21:08 53.79136 -8.82984 34203 ft 522 kts 98°
2026-04-25 21:08 53.78375 -8.70837 34199 ft 522 kts 98°
2026-04-25 21:09 53.77203 -8.52499 34198 ft 522 kts 98°
2026-04-25 21:09 53.76406 -8.40289 34204 ft 522 kts 98°
2026-04-25 21:10 53.75595 -8.28067 34192 ft 523 kts 98°
2026-04-25 21:10 53.74778 -8.15920 34191 ft 523 kts 98°
2026-04-25 21:11 53.73942 -8.03689 34190 ft 523 kts 98°
2026-04-25 21:11 53.73094 -7.91480 34185 ft 523 kts 99°
2026-04-25 21:12 53.72239 -7.79342 34188 ft 523 kts 99°
2026-04-25 21:12 53.71513 -7.69172 34176 ft 523 kts 99°
2026-04-25 21:13 53.70487 -7.55010 34182 ft 522 kts 99°
2026-04-25 21:13 53.69591 -7.42832 34182 ft 522 kts 99°
2026-04-25 21:14 53.68683 -7.30667 34186 ft 522 kts 99°
2026-04-25 21:14 53.67769 -7.18586 34179 ft 521 kts 99°
2026-04-25 21:15 53.66839 -7.06458 34186 ft 521 kts 99°
2026-04-25 21:15 53.65894 -6.94308 34182 ft 521 kts 99°
2026-04-25 21:16 53.64943 -6.82243 34186 ft 521 kts 99°
2026-04-25 21:16 53.63975 -6.70113 34190 ft 521 kts 99°
2026-04-25 21:17 53.63646 -6.66035 34193 ft 521 kts 99°
2026-04-25 21:17 53.62830 -6.55976 34198 ft 522 kts 99°
2026-04-25 21:18 53.61835 -6.43854 34199 ft 522 kts 99°
2026-04-25 21:18 53.60828 -6.31745 34205 ft 522 kts 99°
2026-04-25 21:19 53.59814 -6.19699 34210 ft 522 kts 100°
2026-04-25 21:19 53.58778 -6.07553 34207 ft 522 kts 100°
2026-04-25 21:20 53.57911 -5.97488 34211 ft 522 kts 100°
2026-04-25 21:20 53.56681 -5.83396 34207 ft 523 kts 100°
2026-04-25 21:21 53.55611 -5.71289 34209 ft 523 kts 100°
2026-04-25 21:21 53.54530 -5.59177 34214 ft 523 kts 100°
2026-04-25 21:22 53.53565 -5.47110 34222 ft 524 kts 95°
2026-04-25 21:22 53.53303 -5.34837 34213 ft 525 kts 92°
2026-04-25 21:23 53.53071 -5.22575 34475 ft 521 kts 93°
2026-04-25 21:23 53.52924 -5.16524 34930 ft 514 kts 94°
2026-04-25 21:23 53.52754 -5.10551 35409 ft 507 kts 94°
2026-04-25 21:24 53.52559 -5.04661 35829 ft 503 kts 94°
2026-04-25 21:24 53.52356 -4.98805 36150 ft 500 kts 94°
2026-04-25 21:24 53.52159 -4.93029 36392 ft 500 kts 94°
2026-04-25 21:24 53.51963 -4.87207 36602 ft 500 kts 94°
2026-04-25 21:25 53.51767 -4.81375 36823 ft 500 kts 94°
2026-04-25 21:25 53.51569 -4.75545 37062 ft 499 kts 94°
2026-04-25 21:25 53.51164 -4.63850 37193 ft 502 kts 94°
2026-04-25 21:26 53.50748 -4.52122 37222 ft 507 kts 94°
2026-04-25 21:26 53.50317 -4.40304 37227 ft 511 kts 94°
2026-04-25 21:27 53.49867 -4.28321 37230 ft 514 kts 94°
2026-04-25 21:27 53.49406 -4.16319 37226 ft 516 kts 94°
2026-04-25 21:28 53.48933 -4.04318 37222 ft 518 kts 95°
2026-04-25 21:28 53.47819 -3.92400 37226 ft 517 kts 105°
2026-04-25 21:29 53.45540 -3.80960 37230 ft 515 kts 111°
2026-04-25 21:29 53.43123 -3.69629 37224 ft 515 kts 110°
2026-04-25 21:30 53.41276 -3.58049 37230 ft 515 kts 101°
2026-04-25 21:30 53.40641 -3.48135 37231 ft 515 kts 94°
2026-04-25 21:31 53.40124 -3.34201 37230 ft 514 kts 95°
2026-04-25 21:31 53.39476 -3.22309 37229 ft 513 kts 97°
2026-04-25 21:32 53.38578 -3.10364 37235 ft 513 kts 98°
2026-04-25 21:32 53.37685 -2.98575 37239 ft 512 kts 98°
2026-04-25 21:33 53.36819 -2.86734 37239 ft 512 kts 97°
2026-04-25 21:33 53.35907 -2.74910 37236 ft 511 kts 99°
2026-04-25 21:34 53.34842 -2.63213 37238 ft 511 kts 99°
2026-04-25 21:34 53.33737 -2.51458 37236 ft 511 kts 99°
2026-04-25 21:35 53.32614 -2.39706 37240 ft 511 kts 100°
2026-04-25 21:35 53.31477 -2.27947 37240 ft 511 kts 100°
2026-04-25 21:36 53.30333 -2.16205 37241 ft 511 kts 100°
2026-04-25 21:36 53.29181 -2.04509 37244 ft 512 kts 100°
2026-04-25 21:37 53.28405 -1.96679 37243 ft 512 kts 100°
2026-04-25 21:37 53.26967 -1.81002 37259 ft 512 kts 99°
2026-04-25 21:38 53.26094 -1.71204 37273 ft 511 kts 99°
2026-04-25 21:38 53.25027 -1.59506 37275 ft 511 kts 99°
2026-04-25 21:39 53.23934 -1.47801 37270 ft 511 kts 99°
2026-04-25 21:39 53.22825 -1.36089 37278 ft 510 kts 99°
2026-04-25 21:40 53.21705 -1.24383 37276 ft 510 kts 99°
2026-04-25 21:40 53.20577 -1.12715 37277 ft 509 kts 99°
2026-04-25 21:41 53.19436 -1.01029 37280 ft 509 kts 99°
2026-04-25 21:41 53.18287 -0.89387 37284 ft 508 kts 99°
2026-04-25 21:42 53.17135 -0.77825 37287 ft 508 kts 99°
2026-04-25 21:42 53.15962 -0.66184 37294 ft 507 kts 100°
2026-04-25 21:43 53.14789 -0.54657 37293 ft 507 kts 100°
2026-04-25 21:43 53.13598 -0.43062 37292 ft 506 kts 100°
2026-04-25 21:44 53.12398 -0.31503 37291 ft 506 kts 100°
2026-04-25 21:45 53.10587 -0.14266 37292 ft 506 kts 100°
2026-04-25 21:45 53.09360 -0.02731 37292 ft 506 kts 100°
2026-04-25 21:46 53.08120 0.08810 37290 ft 506 kts 100°
2026-04-25 21:46 53.06870 0.20342 37289 ft 506 kts 100°
2026-04-25 21:47 53.05615 0.31812 37283 ft 507 kts 100°
2026-04-25 21:47 53.04340 0.43348 37295 ft 507 kts 101°
2026-04-25 21:48 53.03058 0.54866 37283 ft 507 kts 101°
2026-04-25 21:48 53.01759 0.66398 37293 ft 507 kts 101°
2026-04-25 21:49 53.00450 0.77928 37293 ft 507 kts 101°
2026-04-25 21:49 52.99141 0.89370 37294 ft 507 kts 101°
2026-04-25 21:50 52.97698 1.00834 37298 ft 506 kts 105°
2026-04-25 21:50 52.95360 1.11830 37286 ft 500 kts 111°
2026-04-25 21:51 52.92865 1.22517 37307 ft 502 kts 111°
2026-04-25 21:51 52.90356 1.33351 37299 ft 505 kts 111°
2026-04-25 21:52 52.87850 1.44272 37303 ft 508 kts 111°
2026-04-25 21:52 52.85329 1.55244 37297 ft 510 kts 111°
2026-04-25 21:53 52.82808 1.66157 37297 ft 511 kts 111°
2026-04-25 21:53 52.80250 1.77158 37297 ft 512 kts 111°
2026-04-25 21:54 52.77682 1.88149 37294 ft 513 kts 111°
2026-04-25 21:54 52.74911 1.98998 37297 ft 513 kts 117°
2026-04-25 21:55 52.71137 2.08904 37289 ft 512 kts 124°
2026-04-25 21:55 52.67132 2.18662 37292 ft 513 kts 124°
2026-04-25 21:56 52.63151 2.28434 37289 ft 513 kts 123°
2026-04-25 21:56 52.59218 2.38163 37287 ft 513 kts 123°
2026-04-25 21:57 52.55255 2.47946 37290 ft 514 kts 123°
2026-04-25 21:57 52.51288 2.57704 37288 ft 511 kts 123°
2026-04-25 21:58 52.47333 2.67397 37287 ft 511 kts 123°
2026-04-25 21:58 52.43357 2.77090 37290 ft 512 kts 124°
2026-04-25 21:59 52.39374 2.86761 37284 ft 513 kts 124°
2026-04-25 21:59 52.35389 2.96404 37277 ft 513 kts 124°
2026-04-25 22:00 52.29535 3.11001 37257 ft 510 kts 117°
2026-04-25 22:00 52.26555 3.21547 37260 ft 510 kts 112°
2026-04-25 22:01 52.23826 3.32141 37265 ft 508 kts 112°
2026-04-25 22:01 52.22472 3.37445 37161 ft 503 kts 112°
2026-04-25 22:01 52.21581 3.40936 37072 ft 498 kts 112°
2026-04-25 22:02 52.19815 3.47877 36809 ft 491 kts 112°
2026-04-25 22:02 52.18514 3.52996 36449 ft 489 kts 112°
2026-04-25 22:02 52.17228 3.58067 35938 ft 490 kts 112°
2026-04-25 22:02 52.15953 3.63112 35498 ft 490 kts 112°
2026-04-25 22:03 52.14658 3.68257 35042 ft 489 kts 112°
2026-04-25 22:03 52.13378 3.73367 34872 ft 481 kts 112°
2026-04-25 22:03 52.12125 3.78379 34464 ft 474 kts 112°
2026-04-25 22:03 52.10882 3.83366 33440 ft 478 kts 112°
2026-04-25 22:04 52.09619 3.88432 32042 ft 486 kts 114°
2026-04-25 22:04 52.07927 3.93174 30710 ft 494 kts 131°
2026-04-25 22:04 52.05400 3.96903 29866 ft 488 kts 147°
2026-04-25 22:04 52.02465 3.99536 29204 ft 478 kts 159°
2026-04-25 22:05 51.99375 4.01369 28510 ft 469 kts 161°
2026-04-25 22:05 51.96302 4.03151 27781 ft 465 kts 161°
2026-04-25 22:05 51.93273 4.04937 27058 ft 462 kts 161°
2026-04-25 22:05 51.90259 4.06739 26355 ft 459 kts 161°
2026-04-25 22:06 51.87305 4.08522 25684 ft 455 kts 161°
2026-04-25 22:06 51.84350 4.10313 25036 ft 452 kts 161°
2026-04-25 22:06 51.81405 4.12101 24385 ft 449 kts 161°
2026-04-25 22:06 51.78489 4.13869 23742 ft 446 kts 161°
2026-04-25 22:07 51.75596 4.15620 23044 ft 442 kts 161°
2026-04-25 22:07 51.73683 4.16777 22627 ft 439 kts 161°
2026-04-25 22:07 51.69878 4.19072 21829 ft 433 kts 161°
2026-04-25 22:07 51.67067 4.20765 21217 ft 429 kts 160°
2026-04-25 22:08 51.64278 4.22442 20646 ft 426 kts 160°
2026-04-25 22:08 51.61510 4.24105 20089 ft 422 kts 160°
2026-04-25 22:08 51.58767 4.25751 19553 ft 419 kts 160°
2026-04-25 22:08 51.56038 4.27386 19044 ft 416 kts 160°
2026-04-25 22:09 51.53365 4.28985 18546 ft 414 kts 160°
2026-04-25 22:09 51.50677 4.30594 17995 ft 411 kts 160°
2026-04-25 22:09 51.48008 4.32188 17457 ft 408 kts 160°
2026-04-25 22:09 51.45356 4.33771 16957 ft 405 kts 160°
2026-04-25 22:10 51.42724 4.35334 16454 ft 402 kts 160°
2026-04-25 22:10 51.40097 4.36886 15952 ft 400 kts 160°
2026-04-25 22:10 51.37496 4.38420 15484 ft 398 kts 160°
2026-04-25 22:10 51.34900 4.39948 14993 ft 395 kts 160°
2026-04-25 22:11 51.32325 4.41462 14536 ft 394 kts 160°
2026-04-25 22:11 51.29766 4.42719 14202 ft 384 kts 168°
2026-04-25 22:11 51.27185 4.43513 14136 ft 371 kts 171°
2026-04-25 22:11 51.24719 4.44158 13974 ft 346 kts 172°
2026-04-25 22:12 51.22420 4.44743 13583 ft 324 kts 172°
2026-04-25 22:12 51.20238 4.45292 12969 ft 314 kts 172°
2026-04-25 22:12 51.18089 4.45824 12364 ft 311 kts 172°
2026-04-25 22:12 51.16675 4.46172 12001 ft 308 kts 172°
2026-04-25 22:13 51.13928 4.47243 11219 ft 304 kts 152°
2026-04-25 22:13 51.12309 4.49344 10612 ft 301 kts 126°
2026-04-25 22:13 51.11260 4.52160 10047 ft 297 kts 115°
2026-04-25 22:13 51.10393 4.55132 9468 ft 294 kts 113°
2026-04-25 22:14 51.09568 4.58083 8892 ft 291 kts 112°
2026-04-25 22:14 51.08750 4.61025 8334 ft 288 kts 112°
2026-04-25 22:14 51.07941 4.63929 7790 ft 285 kts 112°
2026-04-25 22:14 51.07141 4.66799 7248 ft 283 kts 112°
2026-04-25 22:15 51.06345 4.69646 6750 ft 279 kts 112°
2026-04-25 22:15 51.05363 4.72219 6420 ft 266 kts 128°
2026-04-25 22:15 51.04166 4.74367 6044 ft 256 kts 131°
2026-04-25 22:16 51.01756 4.78387 5823 ft 242 kts 132°
2026-04-25 22:16 51.00485 4.79990 5685 ft 231 kts 158°
2026-04-25 22:16 50.98970 4.80328 5490 ft 213 kts 192°
2026-04-25 22:16 50.97688 4.79404 5107 ft 201 kts 218°
2026-04-25 22:17 50.96604 4.78015 4610 ft 199 kts 222°
2026-04-25 22:17 50.95628 4.76499 4158 ft 191 kts 240°
2026-04-25 22:17 50.95091 4.74633 4070 ft 185 kts 250°
2026-04-25 22:17 50.94600 4.72705 4062 ft 189 kts 251°
2026-04-25 22:18 50.94146 4.70794 4005 ft 186 kts 252°
2026-04-25 22:18 50.93706 4.68886 3929 ft 186 kts 253°
2026-04-25 22:18 50.93258 4.66880 3389 ft 198 kts 253°
2026-04-25 22:18 50.92794 4.64787 2809 ft 202 kts 253°
2026-04-25 22:19 50.92314 4.62579 1614 ft 224 kts 252°
2026-04-25 22:19 50.91940 4.61066 1403 ft 208 kts 249°
2026-04-25 22:19 50.91300 4.58444 1022 ft 177 kts 252°
2026-04-25 22:19 50.90909 4.56734 778 ft 153 kts 251°
2026-04-25 22:20 50.90564 4.55237 574 ft 139 kts 251°
2026-04-25 22:20 50.90234 4.53808 394 ft 138 kts 251°
2026-04-25 22:20 50.89907 4.52398 243 ft 134 kts 251°
2026-04-25 22:20 50.89704 4.51512 179 ft 122 kts 250°
2026-04-25 22:21 50.89402 4.50189 181 ft 67 kts 249°
2026-04-25 22:21 50.89329 4.49804 182 ft 27 kts 279°
2026-04-25 22:21 50.89384 4.49640 175 ft 19 kts 308°
2026-04-25 22:21 50.89443 4.49516 171 ft 14 kts 305°
2026-04-25 22:22 50.89500 4.49391 168 ft 14 kts 308°
2026-04-25 22:22 50.89558 4.49274 163 ft 8 kts 308°
2026-04-25 22:22 50.89561 4.49268 162 ft 0 kts 308°
2026-04-25 22:23 50.89565 4.49260 162 ft 3 kts 308°
2026-04-25 22:23 50.89590 4.49250 160 ft 5 kts 356°
2026-04-25 22:23 50.89641 4.49261 157 ft 9 kts 12°
2026-04-25 22:24 50.89716 4.49288 152 ft 13 kts 14°
2026-04-25 22:24 50.89812 4.49328 146 ft 16 kts 16°
2026-04-25 22:24 50.89926 4.49379 140 ft 10 kts 14°
2026-04-25 22:24 50.89934 4.49383 139 ft 0 kts 14°
2026-04-25 22:25 50.89935 4.49383 139 ft 1 kts 14°
2026-04-25 22:25 50.89937 4.49384 139 ft 0 kts 14°
2026-04-25 22:25 50.89966 4.49379 137 ft 9 kts 340°
2026-04-25 22:25 50.89993 4.49330 136 ft 5 kts 286°
2026-04-25 22:26 50.89979 4.49251 138 ft 10 kts 251°
2026-04-25 22:26 50.89969 4.49205 139 ft 3 kts 250°
2026-04-25 22:26 50.89957 4.49157 140 ft 6 kts 246°
2026-04-25 22:26 50.89920 4.49024 140 ft 13 kts 246°
2026-04-25 22:27 50.89889 4.48914 140 ft 0 kts 245°
2026-04-25 22:27 50.89886 4.48906 140 ft 4 kts 245°
2026-04-25 22:27 50.89884 4.48865 140 ft 4 kts 286°
2026-04-25 22:27 50.89899 4.48836 139 ft 0 kts 316°
2026-04-25 22:28 50.89905 4.48829 138 ft 2 kts 328°
2026-04-25 22:28 50.89927 4.48813 137 ft 4 kts 334°
2026-04-25 22:28 50.89948 4.48797 132 ft 0 kts 335°
2026-04-25 22:28 50.89957 4.48791 131 ft 0 kts 335°